Time,TemperatureF,DewpointF,PressureIn,WindDirection,WindDirectionDegrees,WindSpeedMPH,WindSpeedGustMPH,Humidity,HourlyPrecipIn,Conditions,Clouds,dailyrainin,SoftwareType,DateUTC
2013-08-23 00:01:00,68.1,66.0,29.26,NW,318,6.0,8.0,93,0.00,,,0.05,WUHU216DAVISVP2,2013-08-23 04:01:00,
2013-08-23 00:06:00,68.2,66.1,29.26,NNW,332,6.0,7.0,93,0.00,,,0.05,WUHU216DAVISVP2,2013-08-23 04:06:00,
2013-08-23 00:11:00,68.1,66.0,29.26,NW,324,4.0,7.0,93,0.00,,,0.05,WUHU216DAVISVP2,2013-08-23 04:11:00,
2013-08-23 00:16:00,68.2,66.1,29.26,NW,324,2.0,7.0,93,0.00,,,0.00,WUHU216DAVISVP2,2013-08-23 04:16:00,
2013-08-23 00:21:00,68.1,66.0,29.26,NW,314,5.0,7.0,93,0.00,,,0.00,WUHU216DAVISVP2,2013-08-23 04:21:00,
2013-08-23 00:22:00,68.1,66.0,29.27,NW,314,5.0,7.0,93,0.00,,,0.00,WUHU216DAVISVP2,2013-08-23 04:22:00,
2013-08-23 00:26:00,68.1,66.0,29.26,NW,314,2.0,7.0,93,0.00,,,0.00,WUHU216DAVISVP2,2013-08-23 04:26:00,
2013-08-23 00:27:00,68.0,65.9,29.26,NW,314,4.0,7.0,93,0.00,,,0.00,WUHU216DAVISVP2,2013-08-23 04:27:00,
2013-08-23 00:31:00,68.0,65.9,29.26,NW,314,3.0,6.0,93,0.00,,,0.00,WUHU216DAVISVP2,2013-08-23 04:31:00,
2013-08-23 00:32:00,68.0,65.9,29.26,NW,314,2.0,6.0,93,0.00,,,0.00,WUHU216DAVISVP2,2013-08-23 04:32:00,
2013-08-23 00:36:00,68.0,65.9,29.26,NW,314,1.0,6.0,93,0.00,,,0.00,WUHU216DAVISVP2,2013-08-23 04:36:00,
2013-08-23 00:37:00,68.0,65.9,29.26,NW,314,0.0,6.0,93,0.00,,,0.00,WUHU216DAVISVP2,2013-08-23 04:37:00,
2013-08-23 00:41:00,68.1,66.0,29.27,NW,314,3.0,6.0,93,0.00,,,0.00,WUHU216DAVISVP2,2013-08-23 04:41:00,
2013-08-23 00:42:00,68.1,66.0,29.27,NW,314,3.0,6.0,93,0.00,,,0.00,WUHU216DAVISVP2,2013-08-23 04:42:00,
2013-08-23 00:43:00,68.1,66.0,29.27,NW,314,5.0,6.0,93,0.00,,,0.00,WUHU216DAVISVP2,2013-08-23 04:43:00,
2013-08-23 00:47:00,68.1,66.0,29.26,NW,314,2.0,6.0,93,0.00,,,0.00,WUHU216DAVISVP2,2013-08-23 04:47:00,
2013-08-23 00:48:00,68.1,66.0,29.26,NW,314,4.0,6.0,93,0.00,,,0.00,WUHU216DAVISVP2,2013-08-23 04:48:00,
2013-08-23 00:52:00,68.1,66.0,29.26,NW,314,2.0,6.0,93,0.00,,,0.00,WUHU216DAVISVP2,2013-08-23 04:52:00,
2013-08-23 00:53:00,68.1,66.0,29.26,NW,314,2.0,6.0,93,0.00,,,0.00,WUHU216DAVISVP2,2013-08-23 04:53:00,
2013-08-23 00:57:00,68.1,66.0,29.26,NW,314,5.0,6.0,93,0.00,,,0.00,WUHU216DAVISVP2,2013-08-23 04:57:00,
2013-08-23 00:58:00,68.1,66.0,29.26,NW,308,5.0,7.0,93,0.00,,,0.00,WUHU216DAVISVP2,2013-08-23 04:58:00,
2013-08-23 01:02:00,68.2,66.1,29.27,NW,318,5.0,8.0,93,0.00,,,0.00,WUHU216DAVISVP2,2013-08-23 05:02:00,
2013-08-23 01:03:00,68.3,66.2,29.27,NW,318,2.0,8.0,93,0.00,,,0.00,WUHU216DAVISVP2,2013-08-23 05:03:00,
2013-08-23 01:04:00,68.3,66.2,29.27,NNW,339,4.0,8.0,93,0.00,,,0.00,WUHU216DAVISVP2,2013-08-23 05:04:00,
2013-08-23 01:07:00,68.3,66.2,29.27,NNW,340,2.0,8.0,93,0.00,,,0.00,WUHU216DAVISVP2,2013-08-23 05:07:00,
2013-08-23 01:08:00,68.3,66.2,29.27,NNW,340,4.0,8.0,93,0.00,,,0.00,WUHU216DAVISVP2,2013-08-23 05:08:00,
2013-08-23 01:09:00,68.3,66.2,29.27,NNW,340,2.0,8.0,93,0.00,,,0.00,WUHU216DAVISVP2,2013-08-23 05:09:00,
2013-08-23 01:12:00,68.2,66.1,29.26,NNW,340,4.0,8.0,93,0.00,,,0.00,WUHU216DAVISVP2,2013-08-23 05:12:00,
2013-08-23 01:13:00,68.2,66.1,29.26,NNW,340,1.0,8.0,93,0.00,,,0.00,WUHU216DAVISVP2,2013-08-23 05:13:00,
2013-08-23 01:14:00,68.2,66.1,29.26,NNW,340,0.0,8.0,93,0.00,,,0.00,WUHU216DAVISVP2,2013-08-23 05:14:00,
2013-08-23 01:17:00,68.2,66.1,29.26,NNW,332,5.0,7.0,93,0.00,,,0.00,WUHU216DAVISVP2,2013-08-23 05:17:00,
2013-08-23 01:18:00,68.2,66.1,29.26,NNW,332,4.0,7.0,93,0.00,,,0.00,WUHU216DAVISVP2,2013-08-23 05:18:00,
2013-08-23 01:19:00,68.2,66.1,29.27,NNW,332,4.0,7.0,93,0.00,,,0.00,WUHU216DAVISVP2,2013-08-23 05:19:00,
2013-08-23 01:22:00,68.1,66.0,29.27,NNW,332,5.0,7.0,93,0.00,,,0.00,WUHU216DAVISVP2,2013-08-23 05:22:00,
2013-08-23 01:23:00,68.1,66.0,29.27,NNW,332,4.0,7.0,93,0.00,,,0.00,WUHU216DAVISVP2,2013-08-23 05:23:00,
2013-08-23 01:24:00,68.1,66.0,29.27,NNW,332,4.0,7.0,93,0.00,,,0.00,WUHU216DAVISVP2,2013-08-23 05:24:00,
2013-08-23 01:28:00,68.0,65.9,29.27,NNW,332,5.0,7.0,93,0.00,,,0.00,WUHU216DAVISVP2,2013-08-23 05:28:00,
2013-08-23 01:29:00,68.0,65.9,29.27,NNW,332,5.0,7.0,93,0.00,,,0.00,WUHU216DAVISVP2,2013-08-23 05:29:00,
2013-08-23 01:33:00,67.9,65.5,29.27,NNW,333,7.0,7.0,92,0.00,,,0.00,WUHU216DAVISVP2,2013-08-23 05:33:00,
2013-08-23 01:34:00,67.9,65.5,29.27,NNW,329,7.0,8.0,92,0.00,,,0.00,WUHU216DAVISVP2,2013-08-23 05:34:00,
2013-08-23 01:35:00,67.9,65.5,29.27,NNW,339,6.0,8.0,92,0.00,,,0.00,WUHU216DAVISVP2,2013-08-23 05:35:00,
2013-08-23 01:38:00,67.9,65.5,29.27,NNW,332,2.0,8.0,92,0.00,,,0.00,WUHU216DAVISVP2,2013-08-23 05:38:00,
2013-08-23 01:39:00,67.8,65.4,29.27,NNW,332,5.0,8.0,92,0.00,,,0.00,WUHU216DAVISVP2,2013-08-23 05:39:00,
2013-08-23 01:40:00,67.8,65.4,29.27,NNW,332,1.0,8.0,92,0.00,,,0.00,WUHU216DAVISVP2,2013-08-23 05:40:00,
2013-08-23 01:43:00,67.8,65.4,29.27,NNW,330,6.0,8.0,92,0.00,,,0.00,WUHU216DAVISVP2,2013-08-23 05:43:00,
2013-08-23 01:45:00,67.7,65.3,29.27,NNW,330,4.0,8.0,92,0.00,,,0.00,WUHU216DAVISVP2,2013-08-23 05:45:00,
2013-08-23 01:48:00,67.7,65.3,29.27,NNW,346,4.0,8.0,92,0.00,,,0.00,WUHU216DAVISVP2,2013-08-23 05:48:00,
2013-08-23 01:49:00,67.7,65.3,29.27,NNW,346,6.0,8.0,92,0.00,,,0.00,WUHU216DAVISVP2,2013-08-23 05:49:00,
2013-08-23 01:50:00,67.7,65.3,29.27,NNW,348,4.0,8.0,92,0.00,,,0.00,WUHU216DAVISVP2,2013-08-23 05:50:00,
2013-08-23 01:54:00,67.5,65.1,29.27,North,349,4.0,8.0,92,0.00,,,0.00,WUHU216DAVISVP2,2013-08-23 05:54:00,
2013-08-23 01:55:00,67.5,65.1,29.27,NNW,334,7.0,8.0,92,0.00,,,0.00,WUHU216DAVISVP2,2013-08-23 05:55:00,
2013-08-23 01:59:00,67.3,64.9,29.27,NNW,347,6.0,8.0,92,0.00,,,0.00,WUHU216DAVISVP2,2013-08-23 05:59:00,
2013-08-23 02:01:00,67.3,64.9,29.27,North,354,4.0,8.0,92,0.00,,,0.00,WUHU216DAVISVP2,2013-08-23 06:01:00,
2013-08-23 02:04:00,67.2,64.8,29.27,North,4,7.0,9.0,92,0.00,,,0.00,WUHU216DAVISVP2,2013-08-23 06:04:00,
2013-08-23 02:06:00,67.2,64.8,29.27,North,359,7.0,9.0,92,0.00,,,0.00,WUHU216DAVISVP2,2013-08-23 06:06:00,
2013-08-23 02:09:00,67.2,64.5,29.27,NNE,14,5.0,9.0,91,0.00,,,0.00,WUHU216DAVISVP2,2013-08-23 06:09:00,
2013-08-23 02:11:00,67.2,64.5,29.27,NNE,13,4.0,9.0,91,0.00,,,0.00,WUHU216DAVISVP2,2013-08-23 06:11:00,
2013-08-23 02:14:00,67.2,64.5,29.27,North,8,4.0,9.0,91,0.00,,,0.00,WUHU216DAVISVP2,2013-08-23 06:14:00,
2013-08-23 02:16:00,67.2,64.5,29.27,North,8,5.0,9.0,91,0.00,,,0.00,WUHU216DAVISVP2,2013-08-23 06:16:00,
2013-08-23 02:19:00,67.0,64.3,29.27,North,8,4.0,9.0,91,0.00,,,0.00,WUHU216DAVISVP2,2013-08-23 06:19:00,
2013-08-23 02:20:00,67.1,64.4,29.27,North,8,4.0,9.0,91,0.00,,,0.00,WUHU216DAVISVP2,2013-08-23 06:20:00,
2013-08-23 02:21:00,67.0,64.3,29.27,North,8,5.0,8.0,91,0.00,,,0.00,WUHU216DAVISVP2,2013-08-23 06:21:00,
2013-08-23 02:25:00,66.9,64.2,29.27,North,8,5.0,8.0,91,0.00,,,0.00,WUHU216DAVISVP2,2013-08-23 06:25:00,
2013-08-23 02:26:00,66.8,64.1,29.27,North,8,3.0,8.0,91,0.00,,,0.00,WUHU216DAVISVP2,2013-08-23 06:26:00,
2013-08-23 02:27:00,66.8,64.1,29.27,North,8,2.0,8.0,91,0.00,,,0.00,WUHU216DAVISVP2,2013-08-23 06:27:00,
2013-08-23 02:30:00,66.7,64.0,29.27,North,8,1.0,7.0,91,0.00,,,0.00,WUHU216DAVISVP2,2013-08-23 06:30:00,
2013-08-23 02:32:00,66.6,63.9,29.27,North,8,2.0,6.0,91,0.00,,,0.00,WUHU216DAVISVP2,2013-08-23 06:32:00,
2013-08-23 02:35:00,66.5,63.8,29.27,North,8,1.0,6.0,91,0.00,,,0.00,WUHU216DAVISVP2,2013-08-23 06:35:00,
2013-08-23 02:37:00,66.5,63.8,29.27,North,8,2.0,6.0,91,0.00,,,0.00,WUHU216DAVISVP2,2013-08-23 06:37:00,
2013-08-23 02:40:00,66.4,64.0,29.27,North,8,0.0,6.0,92,0.00,,,0.00,WUHU216DAVISVP2,2013-08-23 06:40:00,
2013-08-23 02:42:00,66.3,63.9,29.27,North,8,1.0,6.0,92,0.00,,,0.00,WUHU216DAVISVP2,2013-08-23 06:42:00,
2013-08-23 02:45:00,66.3,63.9,29.27,North,8,2.0,5.0,92,0.00,,,0.00,WUHU216DAVISVP2,2013-08-23 06:45:00,
2013-08-23 02:47:00,66.3,63.9,29.27,North,8,2.0,5.0,92,0.00,,,0.00,WUHU216DAVISVP2,2013-08-23 06:47:00,
2013-08-23 02:50:00,66.2,63.8,29.27,North,8,0.0,4.0,92,0.00,,,0.00,WUHU216DAVISVP2,2013-08-23 06:50:00,
2013-08-23 02:52:00,66.2,63.8,29.27,North,8,1.0,4.0,92,0.00,,,0.00,WUHU216DAVISVP2,2013-08-23 06:52:00,
2013-08-23 02:55:00,66.1,63.7,29.26,North,8,2.0,4.0,92,0.00,,,0.00,WUHU216DAVISVP2,2013-08-23 06:55:00,
2013-08-23 02:57:00,66.1,63.7,29.26,North,8,4.0,4.0,92,0.00,,,0.00,WUHU216DAVISVP2,2013-08-23 06:57:00,
2013-08-23 02:58:00,66.1,63.7,29.26,North,8,2.0,4.0,92,0.00,,,0.00,WUHU216DAVISVP2,2013-08-23 06:58:00,
2013-08-23 03:00:00,66.0,63.6,29.26,North,8,2.0,4.0,92,0.00,,,0.00,WUHU216DAVISVP2,2013-08-23 07:00:00,
2013-08-23 03:01:00,66.0,63.6,29.26,North,8,2.0,4.0,92,0.00,,,0.00,WUHU216DAVISVP2,2013-08-23 07:01:00,
2013-08-23 03:02:00,65.9,63.5,29.26,North,8,2.0,4.0,92,0.00,,,0.00,WUHU216DAVISVP2,2013-08-23 07:02:00,
2013-08-23 03:03:00,65.9,63.5,29.26,North,8,2.0,4.0,92,0.00,,,0.00,WUHU216DAVISVP2,2013-08-23 07:03:00,
2013-08-23 03:05:00,65.9,63.5,29.26,North,8,1.0,4.0,92,0.00,,,0.00,WUHU216DAVISVP2,2013-08-23 07:05:00,
2013-08-23 03:06:00,65.8,63.4,29.26,North,8,1.0,4.0,92,0.00,,,0.00,WUHU216DAVISVP2,2013-08-23 07:06:00,
2013-08-23 03:08:00,65.8,63.4,29.26,North,8,2.0,4.0,92,0.00,,,0.00,WUHU216DAVISVP2,2013-08-23 07:08:00,
2013-08-23 03:11:00,65.7,63.3,29.26,North,8,0.0,4.0,92,0.00,,,0.00,WUHU216DAVISVP2,2013-08-23 07:11:00,
2013-08-23 03:13:00,65.7,63.3,29.26,North,8,1.0,4.0,92,0.00,,,0.00,WUHU216DAVISVP2,2013-08-23 07:13:00,
2013-08-23 03:16:00,65.6,63.2,29.26,North,8,0.0,4.0,92,0.00,,,0.00,WUHU216DAVISVP2,2013-08-23 07:16:00,
2013-08-23 03:17:00,65.6,63.2,29.26,North,8,1.0,4.0,92,0.00,,,0.00,WUHU216DAVISVP2,2013-08-23 07:17:00,
2013-08-23 03:18:00,65.6,63.2,29.26,North,8,1.0,5.0,92,0.00,,,0.00,WUHU216DAVISVP2,2013-08-23 07:18:00,
2013-08-23 03:21:00,65.5,63.4,29.26,North,8,4.0,5.0,93,0.00,,,0.00,WUHU216DAVISVP2,2013-08-23 07:21:00,
2013-08-23 03:22:00,65.5,63.4,29.26,North,8,1.0,5.0,93,0.00,,,0.00,WUHU216DAVISVP2,2013-08-23 07:22:00,
2013-08-23 03:23:00,65.4,63.3,29.26,North,8,1.0,5.0,93,0.00,,,0.00,WUHU216DAVISVP2,2013-08-23 07:23:00,
2013-08-23 03:24:00,65.4,63.3,29.26,North,8,4.0,5.0,93,0.00,,,0.00,WUHU216DAVISVP2,2013-08-23 07:24:00,
2013-08-23 03:26:00,65.4,63.3,29.26,North,8,4.0,5.0,93,0.00,,,0.00,WUHU216DAVISVP2,2013-08-23 07:26:00,
2013-08-23 03:27:00,65.4,63.3,29.26,North,8,1.0,5.0,93,0.00,,,0.00,WUHU216DAVISVP2,2013-08-23 07:27:00,
2013-08-23 03:28:00,65.4,63.3,29.26,North,8,0.0,5.0,93,0.00,,,0.00,WUHU216DAVISVP2,2013-08-23 07:28:00,
2013-08-23 03:29:00,65.4,63.3,29.26,North,8,2.0,5.0,93,0.00,,,0.00,WUHU216DAVISVP2,2013-08-23 07:29:00,
2013-08-23 03:31:00,65.3,63.2,29.26,North,8,0.0,5.0,93,0.00,,,0.00,WUHU216DAVISVP2,2013-08-23 07:31:00,
2013-08-23 03:32:00,65.3,63.2,29.26,North,8,2.0,5.0,93,0.00,,,0.00,WUHU216DAVISVP2,2013-08-23 07:32:00,
2013-08-23 03:33:00,65.3,63.2,29.26,North,8,3.0,5.0,93,0.00,,,0.00,WUHU216DAVISVP2,2013-08-23 07:33:00,
2013-08-23 03:34:00,65.3,63.2,29.26,North,8,4.0,5.0,93,0.00,,,0.00,WUHU216DAVISVP2,2013-08-23 07:34:00,
2013-08-23 03:36:00,65.3,63.2,29.26,North,8,1.0,5.0,93,0.00,,,0.00,WUHU216DAVISVP2,2013-08-23 07:36:00,
2013-08-23 03:37:00,65.3,63.2,29.26,North,8,1.0,5.0,93,0.00,,,0.00,WUHU216DAVISVP2,2013-08-23 07:37:00,
2013-08-23 03:38:00,65.3,63.5,29.26,North,8,5.0,5.0,94,0.00,,,0.00,WUHU216DAVISVP2,2013-08-23 07:38:00,
2013-08-23 03:39:00,65.3,63.5,29.26,North,8,2.0,5.0,94,0.00,,,0.00,WUHU216DAVISVP2,2013-08-23 07:39:00,
2013-08-23 03:41:00,65.3,63.5,29.26,North,8,5.0,5.0,94,0.00,,,0.00,WUHU216DAVISVP2,2013-08-23 07:41:00,
2013-08-23 03:42:00,65.3,63.5,29.26,North,8,4.0,5.0,94,0.00,,,0.00,WUHU216DAVISVP2,2013-08-23 07:42:00,
2013-08-23 03:43:00,65.3,63.5,29.26,North,8,4.0,5.0,94,0.00,,,0.00,WUHU216DAVISVP2,2013-08-23 07:43:00,
2013-08-23 03:44:00,65.3,63.5,29.26,North,8,2.0,5.0,94,0.00,,,0.00,WUHU216DAVISVP2,2013-08-23 07:44:00,
2013-08-23 03:46:00,65.3,63.5,29.26,North,8,0.0,5.0,94,0.00,,,0.00,WUHU216DAVISVP2,2013-08-23 07:46:00,
2013-08-23 03:47:00,65.3,63.5,29.26,North,8,1.0,5.0,94,0.00,,,0.00,WUHU216DAVISVP2,2013-08-23 07:47:00,
2013-08-23 03:48:00,65.2,63.4,29.26,North,8,0.0,5.0,94,0.00,,,0.00,WUHU216DAVISVP2,2013-08-23 07:48:00,
2013-08-23 03:49:00,65.2,63.4,29.26,North,8,0.0,5.0,94,0.00,,,0.00,WUHU216DAVISVP2,2013-08-23 07:49:00,
2013-08-23 03:51:00,65.2,63.4,29.26,North,8,0.0,5.0,94,0.00,,,0.00,WUHU216DAVISVP2,2013-08-23 07:51:00,
2013-08-23 03:52:00,65.2,63.4,29.26,North,8,0.0,5.0,94,0.00,,,0.00,WUHU216DAVISVP2,2013-08-23 07:52:00,
2013-08-23 03:54:00,65.2,63.4,29.26,North,8,0.0,5.0,94,0.00,,,0.00,WUHU216DAVISVP2,2013-08-23 07:54:00,
2013-08-23 03:56:00,65.2,63.4,29.26,North,8,0.0,5.0,94,0.00,,,0.00,WUHU216DAVISVP2,2013-08-23 07:56:00,
2013-08-23 03:57:00,65.2,63.4,29.26,North,8,0.0,5.0,94,0.00,,,0.00,WUHU216DAVISVP2,2013-08-23 07:57:00,
2013-08-23 03:59:00,65.2,63.4,29.26,North,8,0.0,5.0,94,0.00,,,0.00,WUHU216DAVISVP2,2013-08-23 07:59:00,
2013-08-23 04:01:00,65.2,63.4,29.26,North,8,0.0,4.0,94,0.00,,,0.00,WUHU216DAVISVP2,2013-08-23 08:01:00,
2013-08-23 04:02:00,65.2,63.4,29.26,North,8,0.0,4.0,94,0.00,,,0.00,WUHU216DAVISVP2,2013-08-23 08:02:00,
2013-08-23 04:04:00,65.1,63.3,29.26,North,8,0.0,4.0,94,0.00,,,0.00,WUHU216DAVISVP2,2013-08-23 08:04:00,
2013-08-23 04:07:00,65.0,63.2,29.26,North,8,0.0,1.0,94,0.00,,,0.00,WUHU216DAVISVP2,2013-08-23 08:07:00,
2013-08-23 04:09:00,64.9,63.1,29.26,North,8,0.0,1.0,94,0.00,,,0.00,WUHU216DAVISVP2,2013-08-23 08:09:00,
2013-08-23 04:10:00,64.9,63.1,29.26,North,8,0.0,1.0,94,0.00,,,0.00,WUHU216DAVISVP2,2013-08-23 08:10:00,
2013-08-23 04:12:00,64.8,63.0,29.26,North,8,0.0,1.0,94,0.00,,,0.00,WUHU216DAVISVP2,2013-08-23 08:12:00,
2013-08-23 04:14:00,64.7,62.9,29.25,North,8,0.0,0.0,94,0.00,,,0.00,WUHU216DAVISVP2,2013-08-23 08:14:00,
2013-08-23 04:15:00,64.7,62.9,29.25,North,8,0.0,0.0,94,0.00,,,0.00,WUHU216DAVISVP2,2013-08-23 08:15:00,
2013-08-23 04:17:00,64.7,62.9,29.26,North,8,0.0,0.0,94,0.00,,,0.00,WUHU216DAVISVP2,2013-08-23 08:17:00,
2013-08-23 04:19:00,64.7,62.9,29.26,North,8,0.0,0.0,94,0.00,,,0.00,WUHU216DAVISVP2,2013-08-23 08:19:00,
2013-08-23 04:20:00,64.7,62.9,29.26,North,8,0.0,0.0,94,0.00,,,0.00,WUHU216DAVISVP2,2013-08-23 08:20:00,
2013-08-23 04:22:00,64.6,62.8,29.26,North,8,0.0,0.0,94,0.00,,,0.00,WUHU216DAVISVP2,2013-08-23 08:22:00,
2013-08-23 04:24:00,64.7,62.9,29.26,North,8,1.0,2.0,94,0.00,,,0.00,WUHU216DAVISVP2,2013-08-23 08:24:00,
2013-08-23 04:25:00,64.7,62.9,29.26,North,8,1.0,2.0,94,0.00,,,0.00,WUHU216DAVISVP2,2013-08-23 08:25:00,
2013-08-23 04:27:00,64.7,62.9,29.26,North,8,0.0,2.0,94,0.00,,,0.00,WUHU216DAVISVP2,2013-08-23 08:27:00,
2013-08-23 04:28:00,64.7,62.9,29.26,North,8,0.0,2.0,94,0.00,,,0.00,WUHU216DAVISVP2,2013-08-23 08:28:00,
2013-08-23 04:29:00,64.6,62.8,29.26,North,8,0.0,2.0,94,0.00,,,0.00,WUHU216DAVISVP2,2013-08-23 08:29:00,
2013-08-23 04:30:00,64.6,62.8,29.26,North,8,2.0,2.0,94,0.00,,,0.00,WUHU216DAVISVP2,2013-08-23 08:30:00,
2013-08-23 04:32:00,64.5,62.7,29.26,North,8,0.0,2.0,94,0.00,,,0.00,WUHU216DAVISVP2,2013-08-23 08:32:00,
2013-08-23 04:33:00,64.5,62.7,29.26,North,8,0.0,2.0,94,0.00,,,0.00,WUHU216DAVISVP2,2013-08-23 08:33:00,
2013-08-23 04:35:00,64.4,62.6,29.26,North,8,1.0,4.0,94,0.00,,,0.00,WUHU216DAVISVP2,2013-08-23 08:35:00,
2013-08-23 04:38:00,64.4,62.6,29.26,North,8,1.0,4.0,94,0.00,,,0.00,WUHU216DAVISVP2,2013-08-23 08:38:00,
2013-08-23 04:40:00,64.3,62.8,29.26,North,8,1.0,4.0,95,0.00,,,0.00,WUHU216DAVISVP2,2013-08-23 08:40:00,
2013-08-23 04:43:00,64.2,62.7,29.26,North,8,0.0,4.0,95,0.00,,,0.00,WUHU216DAVISVP2,2013-08-23 08:43:00,
2013-08-23 04:45:00,64.1,62.6,29.26,North,8,1.0,4.0,95,0.00,,,0.00,WUHU216DAVISVP2,2013-08-23 08:45:00,
2013-08-23 04:46:00,64.1,62.6,29.26,North,8,1.0,4.0,95,0.00,,,0.00,WUHU216DAVISVP2,2013-08-23 08:46:00,
2013-08-23 04:48:00,64.1,62.6,29.26,North,8,1.0,4.0,95,0.00,,,0.00,WUHU216DAVISVP2,2013-08-23 08:48:00,
2013-08-23 04:49:00,64.1,62.6,29.26,North,8,1.0,4.0,95,0.00,,,0.00,WUHU216DAVISVP2,2013-08-23 08:49:00,
2013-08-23 04:50:00,64.0,62.5,29.26,North,8,0.0,4.0,95,0.00,,,0.00,WUHU216DAVISVP2,2013-08-23 08:50:00,
2013-08-23 04:51:00,64.0,62.5,29.26,North,8,0.0,4.0,95,0.00,,,0.00,WUHU216DAVISVP2,2013-08-23 08:51:00,
2013-08-23 04:53:00,63.9,62.4,29.26,North,8,1.0,4.0,95,0.00,,,0.00,WUHU216DAVISVP2,2013-08-23 08:53:00,
2013-08-23 04:54:00,63.9,62.4,29.26,North,8,0.0,4.0,95,0.00,,,0.00,WUHU216DAVISVP2,2013-08-23 08:54:00,
2013-08-23 04:55:00,63.9,62.4,29.25,North,8,0.0,4.0,95,0.00,,,0.00,WUHU216DAVISVP2,2013-08-23 08:55:00,
2013-08-23 04:56:00,63.9,62.4,29.25,North,8,0.0,4.0,95,0.00,,,0.00,WUHU216DAVISVP2,2013-08-23 08:56:00,
2013-08-23 04:57:00,63.8,62.3,29.25,North,8,0.0,4.0,95,0.00,,,0.00,WUHU216DAVISVP2,2013-08-23 08:57:00,
2013-08-23 04:58:00,63.8,62.3,29.25,North,8,0.0,4.0,95,0.00,,,0.00,WUHU216DAVISVP2,2013-08-23 08:58:00,
2013-08-23 04:59:00,63.8,62.3,29.25,North,8,2.0,4.0,95,0.00,,,0.00,WUHU216DAVISVP2,2013-08-23 08:59:00,
2013-08-23 05:01:00,64.0,62.5,29.25,North,8,1.0,4.0,95,0.00,,,0.00,WUHU216DAVISVP2,2013-08-23 09:01:00,
2013-08-23 05:02:00,64.0,62.5,29.25,North,8,1.0,4.0,95,0.00,,,0.00,WUHU216DAVISVP2,2013-08-23 09:02:00,
2013-08-23 05:03:00,64.0,62.5,29.25,North,8,0.0,4.0,95,0.00,,,0.00,WUHU216DAVISVP2,2013-08-23 09:03:00,
2013-08-23 05:05:00,64.0,62.5,29.25,North,8,2.0,4.0,95,0.00,,,0.00,WUHU216DAVISVP2,2013-08-23 09:05:00,
2013-08-23 05:06:00,64.0,62.5,29.25,North,8,2.0,4.0,95,0.00,,,0.00,WUHU216DAVISVP2,2013-08-23 09:06:00,
2013-08-23 05:07:00,64.0,62.5,29.25,North,8,1.0,4.0,95,0.00,,,0.00,WUHU216DAVISVP2,2013-08-23 09:07:00,
2013-08-23 05:08:00,64.0,62.5,29.26,North,8,2.0,3.0,95,0.00,,,0.00,WUHU216DAVISVP2,2013-08-23 09:08:00,
2013-08-23 05:10:00,64.0,62.5,29.26,North,8,2.0,4.0,95,0.00,,,0.00,WUHU216DAVISVP2,2013-08-23 09:10:00,
2013-08-23 05:11:00,64.0,62.5,29.26,North,8,2.0,4.0,95,0.00,,,0.00,WUHU216DAVISVP2,2013-08-23 09:11:00,
2013-08-23 05:12:00,64.0,62.5,29.26,North,8,3.0,4.0,95,0.00,,,0.00,WUHU216DAVISVP2,2013-08-23 09:12:00,
2013-08-23 05:13:00,64.0,62.5,29.25,North,8,1.0,4.0,95,0.00,,,0.00,WUHU216DAVISVP2,2013-08-23 09:13:00,
2013-08-23 05:15:00,64.0,62.5,29.25,North,8,0.0,4.0,95,0.00,,,0.00,WUHU216DAVISVP2,2013-08-23 09:15:00,
2013-08-23 05:16:00,64.0,62.5,29.25,North,8,0.0,4.0,95,0.00,,,0.00,WUHU216DAVISVP2,2013-08-23 09:16:00,
2013-08-23 05:17:00,63.9,62.4,29.26,North,8,0.0,4.0,95,0.00,,,0.00,WUHU216DAVISVP2,2013-08-23 09:17:00,
2013-08-23 05:18:00,63.9,62.4,29.25,North,8,0.0,4.0,95,0.00,,,0.00,WUHU216DAVISVP2,2013-08-23 09:18:00,
2013-08-23 05:20:00,63.8,62.3,29.25,North,8,0.0,4.0,95,0.00,,,0.00,WUHU216DAVISVP2,2013-08-23 09:20:00,
2013-08-23 05:22:00,63.8,62.3,29.25,North,8,0.0,4.0,95,0.00,,,0.00,WUHU216DAVISVP2,2013-08-23 09:22:00,
2013-08-23 05:23:00,63.8,62.3,29.25,North,8,0.0,4.0,95,0.00,,,0.00,WUHU216DAVISVP2,2013-08-23 09:23:00,
2013-08-23 05:25:00,63.7,62.2,29.25,North,8,0.0,4.0,95,0.00,,,0.00,WUHU216DAVISVP2,2013-08-23 09:25:00,
2013-08-23 05:27:00,63.6,62.1,29.25,North,8,0.0,4.0,95,0.00,,,0.00,WUHU216DAVISVP2,2013-08-23 09:27:00,
2013-08-23 05:28:00,63.6,62.1,29.26,North,8,0.0,4.0,95,0.00,,,0.00,WUHU216DAVISVP2,2013-08-23 09:28:00,
2013-08-23 05:30:00,63.6,62.1,29.26,North,8,0.0,4.0,95,0.00,,,0.00,WUHU216DAVISVP2,2013-08-23 09:30:00,
2013-08-23 05:32:00,63.6,62.1,29.26,North,8,1.0,4.0,95,0.00,,,0.00,WUHU216DAVISVP2,2013-08-23 09:32:00,
2013-08-23 05:33:00,63.6,62.1,29.26,North,8,2.0,4.0,95,0.00,,,0.00,WUHU216DAVISVP2,2013-08-23 09:33:00,
2013-08-23 05:36:00,63.5,62.0,29.26,North,8,0.0,4.0,95,0.00,,,0.00,WUHU216DAVISVP2,2013-08-23 09:36:00,
2013-08-23 05:38:00,63.4,61.9,29.26,North,8,0.0,4.0,95,0.00,,,0.00,WUHU216DAVISVP2,2013-08-23 09:38:00,
2013-08-23 05:41:00,63.3,61.8,29.26,North,8,0.0,4.0,95,0.00,,,0.00,WUHU216DAVISVP2,2013-08-23 09:41:00,
2013-08-23 05:43:00,63.3,61.8,29.26,North,8,0.0,4.0,95,0.00,,,0.00,WUHU216DAVISVP2,2013-08-23 09:43:00,
2013-08-23 05:44:00,63.3,61.8,29.26,North,8,0.0,4.0,95,0.00,,,0.00,WUHU216DAVISVP2,2013-08-23 09:44:00,
2013-08-23 05:46:00,63.3,61.8,29.26,North,8,0.0,4.0,95,0.00,,,0.00,WUHU216DAVISVP2,2013-08-23 09:46:00,
2013-08-23 05:48:00,63.3,61.8,29.26,North,8,0.0,4.0,95,0.00,,,0.00,WUHU216DAVISVP2,2013-08-23 09:48:00,
2013-08-23 05:49:00,63.3,62.1,29.26,North,8,0.0,4.0,96,0.00,,,0.00,WUHU216DAVISVP2,2013-08-23 09:49:00,
2013-08-23 05:52:00,63.4,62.2,29.26,North,8,0.0,4.0,96,0.00,,,0.00,WUHU216DAVISVP2,2013-08-23 09:52:00,
2013-08-23 05:53:00,63.4,62.2,29.26,North,8,0.0,4.0,96,0.00,,,0.00,WUHU216DAVISVP2,2013-08-23 09:53:00,
2013-08-23 05:54:00,63.4,62.2,29.26,North,8,0.0,4.0,96,0.00,,,0.00,WUHU216DAVISVP2,2013-08-23 09:54:00,
2013-08-23 05:57:00,63.5,62.3,29.26,North,8,1.0,4.0,96,0.00,,,0.00,WUHU216DAVISVP2,2013-08-23 09:57:00,
2013-08-23 05:59:00,63.6,62.4,29.26,North,8,4.0,4.0,96,0.00,,,0.00,WUHU216DAVISVP2,2013-08-23 09:59:00,
2013-08-23 06:02:00,63.8,62.6,29.25,North,8,4.0,5.0,96,0.00,,,0.00,WUHU216DAVISVP2,2013-08-23 10:02:00,
2013-08-23 06:04:00,63.9,62.7,29.26,North,8,1.0,5.0,96,0.00,,,0.00,WUHU216DAVISVP2,2013-08-23 10:04:00,
2013-08-23 06:07:00,64.1,62.9,29.26,North,8,1.0,5.0,96,0.00,,,0.00,WUHU216DAVISVP2,2013-08-23 10:07:00,
2013-08-23 06:09:00,64.1,62.9,29.25,North,8,0.0,5.0,96,0.00,,,0.00,WUHU216DAVISVP2,2013-08-23 10:09:00,
2013-08-23 06:12:00,64.2,63.0,29.26,North,8,3.0,5.0,96,0.00,,,0.00,WUHU216DAVISVP2,2013-08-23 10:12:00,
2013-08-23 06:14:00,64.2,63.0,29.26,North,8,1.0,5.0,96,0.00,,,0.00,WUHU216DAVISVP2,2013-08-23 10:14:00,
2013-08-23 06:18:00,64.3,63.1,29.26,North,8,1.0,5.0,96,0.00,,,0.00,WUHU216DAVISVP2,2013-08-23 10:18:00,
2013-08-23 06:19:00,64.4,63.2,29.26,North,8,1.0,5.0,96,0.00,,,0.00,WUHU216DAVISVP2,2013-08-23 10:19:00,
2013-08-23 06:20:00,64.4,63.2,29.26,North,8,0.0,5.0,96,0.00,,,0.00,WUHU216DAVISVP2,2013-08-23 10:20:00,
2013-08-23 06:23:00,64.5,63.3,29.26,North,8,4.0,5.0,96,0.00,,,0.00,WUHU216DAVISVP2,2013-08-23 10:23:00,
2013-08-23 06:24:00,64.6,63.4,29.26,North,8,4.0,5.0,96,0.00,,,0.00,WUHU216DAVISVP2,2013-08-23 10:24:00,
2013-08-23 06:25:00,64.6,63.4,29.26,North,8,2.0,5.0,96,0.00,,,0.00,WUHU216DAVISVP2,2013-08-23 10:25:00,
2013-08-23 06:28:00,64.8,63.6,29.27,North,8,4.0,7.0,96,0.00,,,0.00,WUHU216DAVISVP2,2013-08-23 10:28:00,
2013-08-23 06:29:00,64.8,63.6,29.27,North,8,2.0,7.0,96,0.00,,,0.00,WUHU216DAVISVP2,2013-08-23 10:29:00,
2013-08-23 06:30:00,64.8,63.6,29.27,North,8,4.0,7.0,96,0.00,,,0.00,WUHU216DAVISVP2,2013-08-23 10:30:00,
2013-08-23 06:33:00,64.9,63.7,29.27,North,8,4.0,7.0,96,0.00,,,0.00,WUHU216DAVISVP2,2013-08-23 10:33:00,
2013-08-23 06:34:00,64.8,63.6,29.27,North,8,3.0,7.0,96,0.00,,,0.00,WUHU216DAVISVP2,2013-08-23 10:34:00,
2013-08-23 06:35:00,64.8,63.6,29.27,North,8,3.0,7.0,96,0.00,,,0.00,WUHU216DAVISVP2,2013-08-23 10:35:00,
2013-08-23 06:36:00,64.8,63.6,29.27,North,8,4.0,7.0,96,0.00,,,0.00,WUHU216DAVISVP2,2013-08-23 10:36:00,
2013-08-23 06:38:00,64.9,63.7,29.27,North,8,2.0,7.0,96,0.00,,,0.00,WUHU216DAVISVP2,2013-08-23 10:38:00,
2013-08-23 06:40:00,64.9,63.7,29.27,North,8,2.0,7.0,96,0.00,,,0.00,WUHU216DAVISVP2,2013-08-23 10:40:00,
2013-08-23 06:41:00,64.9,63.7,29.27,North,8,0.0,7.0,96,0.00,,,0.00,WUHU216DAVISVP2,2013-08-23 10:41:00,
2013-08-23 06:44:00,65.0,63.8,29.27,North,8,4.0,7.0,96,0.00,,,0.00,WUHU216DAVISVP2,2013-08-23 10:44:00,
2013-08-23 06:45:00,65.0,63.8,29.27,North,8,3.0,7.0,96,0.00,,,0.00,WUHU216DAVISVP2,2013-08-23 10:45:00,
2013-08-23 06:46:00,65.0,63.8,29.27,North,8,2.0,6.0,96,0.00,,,0.00,WUHU216DAVISVP2,2013-08-23 10:46:00,
2013-08-23 06:47:00,65.0,63.8,29.27,North,8,1.0,6.0,96,0.00,,,0.00,WUHU216DAVISVP2,2013-08-23 10:47:00,
2013-08-23 06:49:00,65.1,63.9,29.27,North,8,4.0,6.0,96,0.00,,,0.00,WUHU216DAVISVP2,2013-08-23 10:49:00,
2013-08-23 06:50:00,65.1,63.9,29.27,North,8,1.0,7.0,96,0.00,,,0.00,WUHU216DAVISVP2,2013-08-23 10:50:00,
2013-08-23 06:51:00,65.1,63.9,29.27,North,8,1.0,7.0,96,0.00,,,0.00,WUHU216DAVISVP2,2013-08-23 10:51:00,
2013-08-23 06:53:00,65.1,63.9,29.27,North,8,6.0,7.0,96,0.00,,,0.00,WUHU216DAVISVP2,2013-08-23 10:53:00,
2013-08-23 06:54:00,65.2,64.0,29.27,North,8,3.0,7.0,96,0.00,,,0.00,WUHU216DAVISVP2,2013-08-23 10:54:00,
2013-08-23 06:56:00,65.1,63.9,29.28,North,8,4.0,7.0,96,0.00,,,0.00,WUHU216DAVISVP2,2013-08-23 10:56:00,
2013-08-23 06:58:00,65.1,63.9,29.27,North,10,3.0,7.0,96,0.00,,,0.00,WUHU216DAVISVP2,2013-08-23 10:58:00,
2013-08-23 06:59:00,65.1,63.9,29.28,North,10,2.0,7.0,96,0.00,,,0.00,WUHU216DAVISVP2,2013-08-23 10:59:00,
2013-08-23 07:01:00,65.1,63.9,29.28,North,11,0.0,7.0,96,0.00,,,0.00,WUHU216DAVISVP2,2013-08-23 11:01:00,
2013-08-23 07:03:00,65.1,63.9,29.28,North,10,2.0,7.0,96,0.00,,,0.00,WUHU216DAVISVP2,2013-08-23 11:03:00,
2013-08-23 07:04:00,65.1,63.9,29.28,NNE,14,1.0,7.0,96,0.00,,,0.00,WUHU216DAVISVP2,2013-08-23 11:04:00,
2013-08-23 07:06:00,65.1,63.9,29.28,NNE,15,0.0,7.0,96,0.00,,,0.00,WUHU216DAVISVP2,2013-08-23 11:06:00,
2013-08-23 07:07:00,65.1,63.9,29.28,NNE,14,2.0,7.0,96,0.00,,,0.00,WUHU216DAVISVP2,2013-08-23 11:07:00,
2013-08-23 07:08:00,65.1,63.9,29.28,NNE,14,0.0,7.0,96,0.00,,,0.00,WUHU216DAVISVP2,2013-08-23 11:08:00,
2013-08-23 07:09:00,65.1,63.9,29.28,ENE,62,2.0,7.0,96,0.00,,,0.00,WUHU216DAVISVP2,2013-08-23 11:09:00,
2013-08-23 07:11:00,65.0,63.8,29.28,NE,50,6.0,8.0,96,0.00,,,0.00,WUHU216DAVISVP2,2013-08-23 11:11:00,
2013-08-23 07:12:00,65.0,63.8,29.28,NE,52,5.0,8.0,96,0.00,,,0.00,WUHU216DAVISVP2,2013-08-23 11:12:00,
2013-08-23 07:13:00,65.1,63.9,29.28,NE,53,5.0,8.0,96,0.00,,,0.00,WUHU216DAVISVP2,2013-08-23 11:13:00,
2013-08-23 07:15:00,65.1,63.9,29.28,ENE,62,4.0,8.0,96,0.00,,,0.00,WUHU216DAVISVP2,2013-08-23 11:15:00,
2013-08-23 07:16:00,65.1,63.9,29.28,ENE,60,5.0,8.0,96,0.00,,,0.00,WUHU216DAVISVP2,2013-08-23 11:16:00,
2013-08-23 07:17:00,65.1,63.9,29.29,East,87,2.0,8.0,96,0.00,,,0.00,WUHU216DAVISVP2,2013-08-23 11:17:00,
2013-08-23 07:18:00,65.1,63.9,29.29,ENE,64,3.0,8.0,96,0.00,,,0.00,WUHU216DAVISVP2,2013-08-23 11:18:00,
2013-08-23 07:20:00,65.2,64.0,29.29,ENE,64,6.0,9.0,96,0.00,,,0.00,WUHU216DAVISVP2,2013-08-23 11:20:00,
2013-08-23 07:21:00,65.2,64.0,29.29,NE,56,7.0,9.0,96,0.00,,,0.00,WUHU216DAVISVP2,2013-08-23 11:21:00,
2013-08-23 07:22:00,65.2,64.0,29.29,ENE,59,7.0,9.0,96,0.00,,,0.00,WUHU216DAVISVP2,2013-08-23 11:22:00,
2013-08-23 07:23:00,65.2,64.0,29.29,ENE,60,4.0,9.0,96,0.00,,,0.00,WUHU216DAVISVP2,2013-08-23 11:23:00,
2013-08-23 07:25:00,65.2,64.0,29.29,ENE,57,6.0,9.0,96,0.00,,,0.00,WUHU216DAVISVP2,2013-08-23 11:25:00,
2013-08-23 07:26:00,65.2,64.0,29.29,ENE,68,4.0,9.0,96,0.00,,,0.00,WUHU216DAVISVP2,2013-08-23 11:26:00,
2013-08-23 07:27:00,65.2,64.0,29.29,ENE,68,5.0,9.0,96,0.00,,,0.00,WUHU216DAVISVP2,2013-08-23 11:27:00,
2013-08-23 07:29:00,65.2,64.0,29.29,ENE,62,4.0,9.0,96,0.00,,,0.00,WUHU216DAVISVP2,2013-08-23 11:29:00,
2013-08-23 07:30:00,65.2,64.0,29.29,ENE,65,6.0,9.0,96,0.00,,,0.00,WUHU216DAVISVP2,2013-08-23 11:30:00,
2013-08-23 07:31:00,65.2,64.0,29.29,ENE,68,5.0,9.0,96,0.00,,,0.00,WUHU216DAVISVP2,2013-08-23 11:31:00,
2013-08-23 07:32:00,65.3,64.1,29.29,ENE,66,5.0,9.0,96,0.00,,,0.00,WUHU216DAVISVP2,2013-08-23 11:32:00,
2013-08-23 07:33:00,65.3,64.1,29.29,ENE,66,6.0,9.0,96,0.00,,,0.00,WUHU216DAVISVP2,2013-08-23 11:33:00,
2013-08-23 07:34:00,65.3,64.1,29.29,ENE,67,4.0,9.0,96,0.00,,,0.00,WUHU216DAVISVP2,2013-08-23 11:34:00,
2013-08-23 07:35:00,65.3,64.1,29.29,ENE,65,5.0,9.0,96,0.00,,,0.00,WUHU216DAVISVP2,2013-08-23 11:35:00,
2013-08-23 07:36:00,65.3,64.1,29.29,ENE,70,4.0,9.0,96,0.00,,,0.00,WUHU216DAVISVP2,2013-08-23 11:36:00,
2013-08-23 07:37:00,65.3,64.1,29.29,ENE,71,4.0,9.0,96,0.00,,,0.00,WUHU216DAVISVP2,2013-08-23 11:37:00,
2013-08-23 07:38:00,65.3,64.1,29.29,ENE,68,4.0,9.0,96,0.00,,,0.00,WUHU216DAVISVP2,2013-08-23 11:38:00,
2013-08-23 07:39:00,65.3,64.1,29.29,ENE,73,6.0,9.0,96,0.00,,,0.00,WUHU216DAVISVP2,2013-08-23 11:39:00,
2013-08-23 07:40:00,65.3,64.1,29.29,ENE,75,2.0,9.0,96,0.00,,,0.00,WUHU216DAVISVP2,2013-08-23 11:40:00,
2013-08-23 07:42:00,65.3,64.1,29.29,ENE,59,6.0,8.0,96,0.00,,,0.00,WUHU216DAVISVP2,2013-08-23 11:42:00,
2013-08-23 07:43:00,65.4,64.2,29.29,NE,54,5.0,8.0,96,0.00,,,0.00,WUHU216DAVISVP2,2013-08-23 11:43:00,
2013-08-23 07:44:00,65.4,64.2,29.29,ENE,71,8.0,8.0,96,0.00,,,0.00,WUHU216DAVISVP2,2013-08-23 11:44:00,
2013-08-23 07:46:00,65.4,64.2,29.29,ENE,67,7.0,10.0,96,0.00,,,0.00,WUHU216DAVISVP2,2013-08-23 11:46:00,
2013-08-23 07:47:00,65.4,64.2,29.29,ENE,70,5.0,10.0,96,0.00,,,0.00,WUHU216DAVISVP2,2013-08-23 11:47:00,
2013-08-23 07:48:00,65.4,64.2,29.29,ENE,68,3.0,10.0,96,0.00,,,0.00,WUHU216DAVISVP2,2013-08-23 11:48:00,
2013-08-23 07:49:00,65.4,64.2,29.29,ENE,69,8.0,10.0,96,0.00,,,0.00,WUHU216DAVISVP2,2013-08-23 11:49:00,
2013-08-23 07:51:00,65.4,64.2,29.29,ENE,78,3.0,10.0,96,0.00,,,0.00,WUHU216DAVISVP2,2013-08-23 11:51:00,
2013-08-23 07:52:00,65.4,64.2,29.29,ENE,63,5.0,10.0,96,0.00,,,0.00,WUHU216DAVISVP2,2013-08-23 11:52:00,
2013-08-23 07:53:00,65.4,64.2,29.29,ENE,60,5.0,10.0,96,0.00,,,0.00,WUHU216DAVISVP2,2013-08-23 11:53:00,
2013-08-23 07:54:00,65.4,64.2,29.29,ENE,60,3.0,10.0,96,0.00,,,0.00,WUHU216DAVISVP2,2013-08-23 11:54:00,
2013-08-23 07:56:00,65.4,64.2,29.29,East,89,4.0,10.0,96,0.00,,,0.00,WUHU216DAVISVP2,2013-08-23 11:56:00,
2013-08-23 07:57:00,65.4,64.2,29.29,ENE,73,6.0,10.0,96,0.00,,,0.00,WUHU216DAVISVP2,2013-08-23 11:57:00,
2013-08-23 07:59:00,65.5,64.3,29.29,ENE,70,5.0,10.0,96,0.00,,,0.00,WUHU216DAVISVP2,2013-08-23 11:59:00,
2013-08-23 08:01:00,65.5,64.3,29.29,ENE,75,5.0,10.0,96,0.00,,,0.00,WUHU216DAVISVP2,2013-08-23 12:01:00,
2013-08-23 08:02:00,65.5,64.3,29.29,ENE,76,5.0,10.0,96,0.00,,,0.00,WUHU216DAVISVP2,2013-08-23 12:02:00,
2013-08-23 08:04:00,65.6,64.4,29.29,ENE,77,1.0,9.0,96,0.00,,,0.00,WUHU216DAVISVP2,2013-08-23 12:04:00,
2013-08-23 08:06:00,65.6,64.4,29.29,ENE,77,5.0,9.0,96,0.00,,,0.00,WUHU216DAVISVP2,2013-08-23 12:06:00,
2013-08-23 08:08:00,65.6,64.4,29.29,ENE,76,1.0,9.0,96,0.00,,,0.00,WUHU216DAVISVP2,2013-08-23 12:08:00,
2013-08-23 08:09:00,65.6,64.4,29.29,ENE,76,2.0,8.0,96,0.00,,,0.00,WUHU216DAVISVP2,2013-08-23 12:09:00,
2013-08-23 08:11:00,65.7,64.8,29.30,ENE,58,1.0,8.0,97,0.00,,,0.00,WUHU216DAVISVP2,2013-08-23 12:11:00,
2013-08-23 08:13:00,65.7,64.5,29.30,ENE,58,1.0,7.0,96,0.00,,,0.00,WUHU216DAVISVP2,2013-08-23 12:13:00,
2013-08-23 08:14:00,65.7,64.8,29.30,ENE,69,6.0,7.0,97,0.00,,,0.00,WUHU216DAVISVP2,2013-08-23 12:14:00,
2013-08-23 08:16:00,65.8,64.9,29.30,ENE,73,1.0,7.0,97,0.00,,,0.00,WUHU216DAVISVP2,2013-08-23 12:16:00,
2013-08-23 08:18:00,65.8,64.9,29.30,ENE,63,5.0,7.0,97,0.00,,,0.00,WUHU216DAVISVP2,2013-08-23 12:18:00,
2013-08-23 08:19:00,65.8,64.9,29.30,ENE,64,2.0,7.0,97,0.00,,,0.00,WUHU216DAVISVP2,2013-08-23 12:19:00,
2013-08-23 08:20:00,65.8,64.9,29.30,ENE,68,2.0,7.0,97,0.00,,,0.00,WUHU216DAVISVP2,2013-08-23 12:20:00,
2013-08-23 08:22:00,65.8,64.9,29.30,ENE,73,2.0,7.0,97,0.00,,,0.00,WUHU216DAVISVP2,2013-08-23 12:22:00,
2013-08-23 08:23:00,65.8,64.9,29.30,ENE,75,3.0,7.0,97,0.00,,,0.00,WUHU216DAVISVP2,2013-08-23 12:23:00,
2013-08-23 08:24:00,65.8,64.9,29.30,ENE,77,3.0,7.0,97,0.00,,,0.00,WUHU216DAVISVP2,2013-08-23 12:24:00,
2013-08-23 08:25:00,65.7,64.8,29.30,ENE,71,6.0,7.0,97,0.00,,,0.00,WUHU216DAVISVP2,2013-08-23 12:25:00,
2013-08-23 08:28:00,65.7,64.5,29.30,East,95,5.0,8.0,96,0.00,,,0.00,WUHU216DAVISVP2,2013-08-23 12:28:00,
2013-08-23 08:30:00,65.7,64.5,29.30,ENE,77,4.0,8.0,96,0.00,,,0.00,WUHU216DAVISVP2,2013-08-23 12:30:00,
2013-08-23 08:33:00,65.8,64.9,29.30,ESE,102,2.0,8.0,97,0.00,,,0.00,WUHU216DAVISVP2,2013-08-23 12:33:00,
2013-08-23 08:35:00,65.8,64.9,29.30,ESE,102,0.0,8.0,97,0.00,,,0.00,WUHU216DAVISVP2,2013-08-23 12:35:00,
2013-08-23 08:38:00,65.9,65.0,29.31,East,86,3.0,8.0,97,0.00,,,0.00,WUHU216DAVISVP2,2013-08-23 12:38:00,
2013-08-23 08:39:00,65.8,64.9,29.31,ENE,68,1.0,8.0,97,0.00,,,0.00,WUHU216DAVISVP2,2013-08-23 12:39:00,
2013-08-23 08:40:00,65.8,64.9,29.31,East,80,5.0,8.0,97,0.00,,,0.00,WUHU216DAVISVP2,2013-08-23 12:40:00,
2013-08-23 08:43:00,65.8,64.9,29.31,NE,55,6.0,9.0,97,0.00,,,0.00,WUHU216DAVISVP2,2013-08-23 12:43:00,
2013-08-23 08:44:00,65.8,64.9,29.31,NE,52,6.0,9.0,97,0.00,,,0.00,WUHU216DAVISVP2,2013-08-23 12:44:00,
2013-08-23 08:45:00,65.9,65.0,29.31,ENE,66,2.0,9.0,97,0.00,,,0.00,WUHU216DAVISVP2,2013-08-23 12:45:00,
2013-08-23 08:49:00,65.8,64.9,29.31,ENE,72,7.0,9.0,97,0.00,,,0.00,WUHU216DAVISVP2,2013-08-23 12:49:00,
2013-08-23 08:50:00,65.8,64.9,29.31,East,86,5.0,9.0,97,0.00,,,0.00,WUHU216DAVISVP2,2013-08-23 12:50:00,
2013-08-23 08:51:00,65.8,64.9,29.31,East,89,5.0,9.0,97,0.00,,,0.00,WUHU216DAVISVP2,2013-08-23 12:51:00,
2013-08-23 08:54:00,66.0,65.1,29.31,ENE,70,8.0,9.0,97,0.00,,,0.00,WUHU216DAVISVP2,2013-08-23 12:54:00,
2013-08-23 08:55:00,66.0,64.8,29.31,ENE,57,6.0,9.0,96,0.00,,,0.00,WUHU216DAVISVP2,2013-08-23 12:55:00,
2013-08-23 08:56:00,66.1,64.9,29.31,NE,55,8.0,9.0,96,0.00,,,0.00,WUHU216DAVISVP2,2013-08-23 12:56:00,
2013-08-23 08:59:00,66.2,65.0,29.31,ENE,73,6.0,9.0,96,0.00,,,0.00,WUHU216DAVISVP2,2013-08-23 12:59:00,
2013-08-23 09:01:00,66.2,65.0,29.31,ENE,64,6.0,9.0,96,0.00,,,0.00,WUHU216DAVISVP2,2013-08-23 13:01:00,
2013-08-23 09:02:00,66.2,65.0,29.31,ENE,66,7.0,9.0,96,0.00,,,0.00,WUHU216DAVISVP2,2013-08-23 13:02:00,
2013-08-23 09:04:00,66.3,65.1,29.31,NE,53,5.0,9.0,96,0.00,,,0.00,WUHU216DAVISVP2,2013-08-23 13:04:00,
2013-08-23 09:05:00,66.4,65.2,29.31,NE,54,5.0,9.0,96,0.00,,,0.00,WUHU216DAVISVP2,2013-08-23 13:05:00,
2013-08-23 09:06:00,66.5,65.3,29.31,ENE,71,4.0,9.0,96,0.00,,,0.00,WUHU216DAVISVP2,2013-08-23 13:06:00,
2013-08-23 09:07:00,66.5,65.3,29.31,ENE,77,5.0,9.0,96,0.00,,,0.00,WUHU216DAVISVP2,2013-08-23 13:07:00,
2013-08-23 09:09:00,66.6,65.4,29.31,ENE,70,6.0,9.0,96,0.00,,,0.00,WUHU216DAVISVP2,2013-08-23 13:09:00,
2013-08-23 09:10:00,66.6,65.4,29.31,ENE,67,7.0,9.0,96,0.00,,,0.00,WUHU216DAVISVP2,2013-08-23 13:10:00,
2013-08-23 09:11:00,66.7,65.5,29.31,ENE,60,6.0,9.0,96,0.00,,,0.00,WUHU216DAVISVP2,2013-08-23 13:11:00,
2013-08-23 09:12:00,66.7,65.5,29.31,ENE,60,3.0,9.0,96,0.00,,,0.00,WUHU216DAVISVP2,2013-08-23 13:12:00,
2013-08-23 09:14:00,66.7,65.5,29.31,ENE,75,4.0,9.0,96,0.00,,,0.00,WUHU216DAVISVP2,2013-08-23 13:14:00,
2013-08-23 09:15:00,66.7,65.5,29.31,ENE,62,5.0,9.0,96,0.00,,,0.00,WUHU216DAVISVP2,2013-08-23 13:15:00,
2013-08-23 09:16:00,66.7,65.2,29.31,ENE,71,3.0,9.0,95,0.00,,,0.00,WUHU216DAVISVP2,2013-08-23 13:16:00,
2013-08-23 09:17:00,66.7,65.2,29.31,ENE,71,3.0,9.0,95,0.00,,,0.00,WUHU216DAVISVP2,2013-08-23 13:17:00,
2013-08-23 09:18:00,66.7,65.2,29.31,East,85,4.0,9.0,95,0.00,,,0.00,WUHU216DAVISVP2,2013-08-23 13:18:00,
2013-08-23 09:19:00,66.8,65.3,29.31,ENE,70,6.0,9.0,95,0.00,,,0.00,WUHU216DAVISVP2,2013-08-23 13:19:00,
2013-08-23 09:20:00,66.8,65.3,29.31,East,86,5.0,9.0,95,0.00,,,0.00,WUHU216DAVISVP2,2013-08-23 13:20:00,
2013-08-23 09:22:00,66.8,65.3,29.31,ENE,60,8.0,9.0,95,0.00,,,0.00,WUHU216DAVISVP2,2013-08-23 13:22:00,
2013-08-23 09:23:00,66.7,65.2,29.31,ENE,66,6.0,9.0,95,0.00,,,0.00,WUHU216DAVISVP2,2013-08-23 13:23:00,
2013-08-23 09:25:00,66.8,65.3,29.31,ENE,69,3.0,9.0,95,0.00,,,0.00,WUHU216DAVISVP2,2013-08-23 13:25:00,
2013-08-23 09:27:00,66.8,65.3,29.31,ENE,58,5.0,10.0,95,0.00,,,0.00,WUHU216DAVISVP2,2013-08-23 13:27:00,
2013-08-23 09:28:00,66.8,65.3,29.31,ENE,61,1.0,10.0,95,0.00,,,0.00,WUHU216DAVISVP2,2013-08-23 13:28:00,
2013-08-23 09:30:00,66.9,65.4,29.31,ENE,70,7.0,10.0,95,0.00,,,0.00,WUHU216DAVISVP2,2013-08-23 13:30:00,
2013-08-23 09:32:00,67.0,65.5,29.31,East,85,5.0,10.0,95,0.00,,,0.00,WUHU216DAVISVP2,2013-08-23 13:32:00,
2013-08-23 09:33:00,66.9,65.4,29.31,East,91,6.0,10.0,95,0.00,,,0.00,WUHU216DAVISVP2,2013-08-23 13:33:00,
2013-08-23 09:35:00,67.0,65.2,29.31,ENE,76,2.0,10.0,94,0.00,,,0.00,WUHU216DAVISVP2,2013-08-23 13:35:00,
2013-08-23 09:36:00,67.0,65.2,29.31,East,79,4.0,10.0,94,0.00,,,0.00,WUHU216DAVISVP2,2013-08-23 13:36:00,
2013-08-23 09:37:00,67.0,65.2,29.31,ENE,76,4.0,10.0,94,0.00,,,0.00,WUHU216DAVISVP2,2013-08-23 13:37:00,
2013-08-23 09:38:00,67.0,65.2,29.31,East,81,4.0,10.0,94,0.00,,,0.00,WUHU216DAVISVP2,2013-08-23 13:38:00,
2013-08-23 09:40:00,67.0,65.2,29.31,ENE,66,6.0,10.0,94,0.00,,,0.00,WUHU216DAVISVP2,2013-08-23 13:40:00,
2013-08-23 09:41:00,67.0,65.2,29.31,ENE,72,4.0,10.0,94,0.00,,,0.00,WUHU216DAVISVP2,2013-08-23 13:41:00,
2013-08-23 09:43:00,67.0,65.2,29.31,East,97,7.0,10.0,94,0.00,,,0.00,WUHU216DAVISVP2,2013-08-23 13:43:00,
2013-08-23 09:46:00,67.0,65.2,29.31,East,99,7.0,10.0,94,0.00,,,0.00,WUHU216DAVISVP2,2013-08-23 13:46:00,
2013-08-23 09:48:00,67.0,65.2,29.31,East,90,4.0,10.0,94,0.00,,,0.00,WUHU216DAVISVP2,2013-08-23 13:48:00,
2013-08-23 09:49:00,67.0,64.9,29.31,ENE,60,5.0,10.0,93,0.00,,,0.00,WUHU216DAVISVP2,2013-08-23 13:49:00,
2013-08-23 09:51:00,67.0,64.9,29.32,ENE,73,4.0,10.0,93,0.00,,,0.00,WUHU216DAVISVP2,2013-08-23 13:51:00,
2013-08-23 09:53:00,67.0,64.9,29.31,ENE,70,4.0,10.0,93,0.00,,,0.00,WUHU216DAVISVP2,2013-08-23 13:53:00,
2013-08-23 09:54:00,67.1,65.0,29.32,ENE,73,1.0,10.0,93,0.00,,,0.00,WUHU216DAVISVP2,2013-08-23 13:54:00,
2013-08-23 09:56:00,67.1,65.0,29.32,ESE,120,5.0,10.0,93,0.00,,,0.00,WUHU216DAVISVP2,2013-08-23 13:56:00,
2013-08-23 09:57:00,67.1,65.0,29.32,ESE,103,5.0,10.0,93,0.00,,,0.00,WUHU216DAVISVP2,2013-08-23 13:57:00,
2013-08-23 09:58:00,67.1,65.0,29.32,East,89,7.0,10.0,93,0.00,,,0.00,WUHU216DAVISVP2,2013-08-23 13:58:00,
2013-08-23 09:59:00,67.0,64.9,29.32,ENE,72,6.0,10.0,93,0.00,,,0.00,WUHU216DAVISVP2,2013-08-23 13:59:00,
2013-08-23 10:01:00,67.0,64.9,29.32,East,87,2.0,10.0,93,0.00,,,0.00,WUHU216DAVISVP2,2013-08-23 14:01:00,
2013-08-23 10:02:00,67.1,65.0,29.32,ENE,76,5.0,10.0,93,0.00,,,0.00,WUHU216DAVISVP2,2013-08-23 14:02:00,
2013-08-23 10:03:00,67.1,65.0,29.32,East,85,4.0,10.0,93,0.00,,,0.00,WUHU216DAVISVP2,2013-08-23 14:03:00,
2013-08-23 10:04:00,67.1,65.0,29.32,ENE,73,6.0,10.0,93,0.00,,,0.00,WUHU216DAVISVP2,2013-08-23 14:04:00,
2013-08-23 10:06:00,67.2,65.1,29.32,ENE,64,6.0,8.0,93,0.00,,,0.00,WUHU216DAVISVP2,2013-08-23 14:06:00,
2013-08-23 10:07:00,67.2,65.1,29.32,ENE,57,7.0,8.0,93,0.00,,,0.00,WUHU216DAVISVP2,2013-08-23 14:07:00,
2013-08-23 10:08:00,67.2,65.1,29.32,East,79,4.0,8.0,93,0.00,,,0.00,WUHU216DAVISVP2,2013-08-23 14:08:00,
2013-08-23 10:09:00,67.2,65.1,29.32,ENE,67,5.0,9.0,93,0.00,,,0.00,WUHU216DAVISVP2,2013-08-23 14:09:00,
2013-08-23 10:12:00,67.2,65.1,29.32,ENE,71,4.0,9.0,93,0.00,,,0.00,WUHU216DAVISVP2,2013-08-23 14:12:00,
2013-08-23 10:13:00,67.3,65.2,29.32,ENE,74,7.0,10.0,93,0.00,,,0.00,WUHU216DAVISVP2,2013-08-23 14:13:00,
2013-08-23 10:14:00,67.3,65.2,29.32,NE,54,7.0,10.0,93,0.00,,,0.00,WUHU216DAVISVP2,2013-08-23 14:14:00,
2013-08-23 10:17:00,67.4,65.3,29.33,ESE,105,2.0,10.0,93,0.00,,,0.00,WUHU216DAVISVP2,2013-08-23 14:17:00,
2013-08-23 10:19:00,67.5,65.4,29.33,ENE,61,4.0,10.0,93,0.00,,,0.00,WUHU216DAVISVP2,2013-08-23 14:19:00,
2013-08-23 10:22:00,67.6,65.2,29.32,ENE,70,4.0,10.0,92,0.00,,,0.00,WUHU216DAVISVP2,2013-08-23 14:22:00,
2013-08-23 10:24:00,67.7,65.3,29.32,East,93,4.0,10.0,92,0.00,,,0.00,WUHU216DAVISVP2,2013-08-23 14:24:00,
2013-08-23 10:25:00,67.7,65.3,29.32,East,93,5.0,10.0,92,0.00,,,0.00,WUHU216DAVISVP2,2013-08-23 14:25:00,
2013-08-23 10:27:00,67.8,65.4,29.32,ENE,74,5.0,10.0,92,0.00,,,0.00,WUHU216DAVISVP2,2013-08-23 14:27:00,
2013-08-23 10:28:00,67.8,65.4,29.32,ENE,77,5.0,10.0,92,0.00,,,0.00,WUHU216DAVISVP2,2013-08-23 14:28:00,
2013-08-23 10:29:00,67.8,65.4,29.32,East,92,4.0,10.0,92,0.00,,,0.00,WUHU216DAVISVP2,2013-08-23 14:29:00,
2013-08-23 10:30:00,67.8,65.4,29.32,East,81,4.0,10.0,92,0.00,,,0.00,WUHU216DAVISVP2,2013-08-23 14:30:00,
2013-08-23 10:32:00,67.9,65.5,29.32,ESE,123,5.0,10.0,92,0.00,,,0.00,WUHU216DAVISVP2,2013-08-23 14:32:00,
2013-08-23 10:33:00,67.9,65.5,29.32,ENE,68,4.0,9.0,92,0.00,,,0.00,WUHU216DAVISVP2,2013-08-23 14:33:00,
2013-08-23 10:34:00,67.9,65.5,29.32,East,81,4.0,8.0,92,0.00,,,0.00,WUHU216DAVISVP2,2013-08-23 14:34:00,
2013-08-23 10:35:00,67.9,65.5,29.32,East,87,4.0,8.0,92,0.00,,,0.00,WUHU216DAVISVP2,2013-08-23 14:35:00,
2013-08-23 10:37:00,67.9,65.5,29.32,East,95,3.0,8.0,92,0.00,,,0.00,WUHU216DAVISVP2,2013-08-23 14:37:00,
2013-08-23 10:39:00,67.9,65.5,29.32,East,92,2.0,8.0,92,0.00,,,0.00,WUHU216DAVISVP2,2013-08-23 14:39:00,
2013-08-23 10:40:00,68.0,65.6,29.32,East,83,4.0,7.0,92,0.00,,,0.00,WUHU216DAVISVP2,2013-08-23 14:40:00,
2013-08-23 10:42:00,68.0,65.6,29.32,East,86,5.0,8.0,92,0.00,,,0.00,WUHU216DAVISVP2,2013-08-23 14:42:00,
2013-08-23 10:44:00,68.0,65.6,29.32,ENE,61,6.0,8.0,92,0.00,,,0.00,WUHU216DAVISVP2,2013-08-23 14:44:00,
2013-08-23 10:45:00,67.9,65.5,29.32,ESE,121,4.0,8.0,92,0.00,,,0.00,WUHU216DAVISVP2,2013-08-23 14:45:00,
2013-08-23 10:47:00,67.9,65.5,29.32,ENE,64,6.0,8.0,92,0.00,,,0.00,WUHU216DAVISVP2,2013-08-23 14:47:00,
2013-08-23 10:49:00,67.9,65.5,29.32,NE,49,4.0,8.0,92,0.00,,,0.00,WUHU216DAVISVP2,2013-08-23 14:49:00,
2013-08-23 10:50:00,67.9,65.5,29.32,NE,49,5.0,8.0,92,0.00,,,0.00,WUHU216DAVISVP2,2013-08-23 14:50:00,
2013-08-23 10:51:00,68.0,65.6,29.32,NE,45,6.0,8.0,92,0.00,,,0.00,WUHU216DAVISVP2,2013-08-23 14:51:00,
2013-08-23 10:53:00,68.0,65.6,29.32,NE,40,8.0,9.0,92,0.00,,,0.00,WUHU216DAVISVP2,2013-08-23 14:53:00,
2013-08-23 10:54:00,68.1,65.7,29.32,ENE,75,4.0,9.0,92,0.00,,,0.00,WUHU216DAVISVP2,2013-08-23 14:54:00,
2013-08-23 10:55:00,68.1,65.7,29.32,ENE,61,5.0,9.0,92,0.00,,,0.00,WUHU216DAVISVP2,2013-08-23 14:55:00,
2013-08-23 10:56:00,68.1,65.7,29.32,ENE,71,1.0,9.0,92,0.00,,,0.00,WUHU216DAVISVP2,2013-08-23 14:56:00,
2013-08-23 10:58:00,68.2,65.8,29.32,ENE,71,5.0,9.0,92,0.00,,,0.00,WUHU216DAVISVP2,2013-08-23 14:58:00,
2013-08-23 10:59:00,68.2,65.8,29.33,ENE,71,3.0,9.0,92,0.00,,,0.00,WUHU216DAVISVP2,2013-08-23 14:59:00,
2013-08-23 11:00:00,68.3,65.9,29.33,ENE,64,7.0,9.0,92,0.00,,,0.00,WUHU216DAVISVP2,2013-08-23 15:00:00,
2013-08-23 11:01:00,68.3,65.9,29.33,ENE,64,6.0,9.0,92,0.00,,,0.00,WUHU216DAVISVP2,2013-08-23 15:01:00,
2013-08-23 11:03:00,68.4,65.6,29.32,NE,54,7.0,9.0,91,0.00,,,0.00,WUHU216DAVISVP2,2013-08-23 15:03:00,
2013-08-23 11:05:00,68.4,65.6,29.32,ENE,66,8.0,9.0,91,0.00,,,0.00,WUHU216DAVISVP2,2013-08-23 15:05:00,
2013-08-23 11:06:00,68.5,65.7,29.32,ENE,60,6.0,9.0,91,0.00,,,0.00,WUHU216DAVISVP2,2013-08-23 15:06:00,
2013-08-23 11:08:00,68.6,65.8,29.32,ENE,70,3.0,9.0,91,0.00,,,0.00,WUHU216DAVISVP2,2013-08-23 15:08:00,
2013-08-23 11:10:00,68.7,65.9,29.32,ENE,70,1.0,9.0,91,0.00,,,0.00,WUHU216DAVISVP2,2013-08-23 15:10:00,
2013-08-23 11:11:00,68.7,65.9,29.32,ENE,70,5.0,9.0,91,0.00,,,0.00,WUHU216DAVISVP2,2013-08-23 15:11:00,
2013-08-23 11:14:00,68.9,66.1,29.33,ENE,70,5.0,9.0,91,0.00,,,0.00,WUHU216DAVISVP2,2013-08-23 15:14:00,
2013-08-23 11:15:00,69.0,66.2,29.33,ENE,70,1.0,9.0,91,0.00,,,0.00,WUHU216DAVISVP2,2013-08-23 15:15:00,
2013-08-23 11:16:00,69.1,66.3,29.33,ENE,70,1.0,9.0,91,0.00,,,0.00,WUHU216DAVISVP2,2013-08-23 15:16:00,
2013-08-23 11:19:00,69.3,66.5,29.33,ENE,70,2.0,9.0,91,0.00,,,0.00,WUHU216DAVISVP2,2013-08-23 15:19:00,
2013-08-23 11:20:00,69.4,66.6,29.33,ENE,70,5.0,9.0,91,0.00,,,0.00,WUHU216DAVISVP2,2013-08-23 15:20:00,
2013-08-23 11:21:00,69.4,66.3,29.33,ENE,70,5.0,9.0,90,0.00,,,0.00,WUHU216DAVISVP2,2013-08-23 15:21:00,
2013-08-23 11:22:00,69.5,66.4,29.33,ENE,70,4.0,9.0,90,0.00,,,0.00,WUHU216DAVISVP2,2013-08-23 15:22:00,
2013-08-23 11:24:00,69.6,66.5,29.33,East,91,2.0,7.0,90,0.00,,,0.00,WUHU216DAVISVP2,2013-08-23 15:24:00,
2013-08-23 11:25:00,69.6,66.5,29.33,East,85,2.0,7.0,90,0.00,,,0.00,WUHU216DAVISVP2,2013-08-23 15:25:00,
2013-08-23 11:26:00,69.5,66.4,29.33,East,85,0.0,7.0,90,0.00,,,0.00,WUHU216DAVISVP2,2013-08-23 15:26:00,
2013-08-23 11:27:00,69.6,66.5,29.33,East,85,0.0,7.0,90,0.00,,,0.00,WUHU216DAVISVP2,2013-08-23 15:27:00,
2013-08-23 11:30:00,69.7,66.6,29.33,NE,53,5.0,7.0,90,0.00,,,0.00,WUHU216DAVISVP2,2013-08-23 15:30:00,
2013-08-23 11:31:00,69.7,66.6,29.33,NE,53,1.0,7.0,90,0.00,,,0.00,WUHU216DAVISVP2,2013-08-23 15:31:00,
2013-08-23 11:32:00,69.8,66.7,29.33,NE,54,5.0,7.0,90,0.00,,,0.00,WUHU216DAVISVP2,2013-08-23 15:32:00,
2013-08-23 11:35:00,70.0,66.6,29.33,ENE,70,0.0,8.0,89,0.00,,,0.00,WUHU216DAVISVP2,2013-08-23 15:35:00,
2013-08-23 11:36:00,70.1,66.7,29.33,ENE,70,0.0,8.0,89,0.00,,,0.00,WUHU216DAVISVP2,2013-08-23 15:36:00,
2013-08-23 11:37:00,70.2,66.8,29.33,ENE,70,1.0,8.0,89,0.00,,,0.00,WUHU216DAVISVP2,2013-08-23 15:37:00,
2013-08-23 11:40:00,70.4,67.0,29.33,ENE,70,1.0,8.0,89,0.00,,,0.00,WUHU216DAVISVP2,2013-08-23 15:40:00,
2013-08-23 11:41:00,70.5,67.1,29.33,ENE,70,0.0,8.0,89,0.00,,,0.00,WUHU216DAVISVP2,2013-08-23 15:41:00,
2013-08-23 11:42:00,70.6,67.2,29.32,ENE,70,5.0,8.0,89,0.00,,,0.00,WUHU216DAVISVP2,2013-08-23 15:42:00,
2013-08-23 11:43:00,70.7,67.3,29.33,ENE,70,5.0,8.0,89,0.00,,,0.00,WUHU216DAVISVP2,2013-08-23 15:43:00,
2013-08-23 11:45:00,71.0,67.3,29.33,ENE,70,5.0,8.0,88,0.00,,,0.00,WUHU216DAVISVP2,2013-08-23 15:45:00,
2013-08-23 11:46:00,71.2,67.5,29.33,ENE,70,4.0,8.0,88,0.00,,,0.00,WUHU216DAVISVP2,2013-08-23 15:46:00,
2013-08-23 11:47:00,71.2,67.5,29.33,ENE,70,0.0,8.0,88,0.00,,,0.00,WUHU216DAVISVP2,2013-08-23 15:47:00,
2013-08-23 11:48:00,71.3,67.2,29.33,ENE,70,1.0,8.0,87,0.00,,,0.00,WUHU216DAVISVP2,2013-08-23 15:48:00,
2013-08-23 11:50:00,71.6,67.5,29.33,ENE,70,4.0,8.0,87,0.00,,,0.00,WUHU216DAVISVP2,2013-08-23 15:50:00,
2013-08-23 11:51:00,71.7,67.6,29.33,ENE,70,2.0,8.0,87,0.00,,,0.00,WUHU216DAVISVP2,2013-08-23 15:51:00,
2013-08-23 11:52:00,71.7,67.6,29.32,ENE,68,5.0,6.0,87,0.00,,,0.00,WUHU216DAVISVP2,2013-08-23 15:52:00,
2013-08-23 11:54:00,71.8,67.7,29.32,ENE,66,4.0,6.0,87,0.00,,,0.00,WUHU216DAVISVP2,2013-08-23 15:54:00,
2013-08-23 11:55:00,71.9,67.5,29.33,ENE,66,1.0,6.0,86,0.00,,,0.00,WUHU216DAVISVP2,2013-08-23 15:55:00,
2013-08-23 11:57:00,71.9,67.5,29.33,ENE,66,3.0,6.0,86,0.00,,,0.00,WUHU216DAVISVP2,2013-08-23 15:57:00,
2013-08-23 11:58:00,71.9,67.5,29.33,ENE,66,4.0,6.0,86,0.00,,,0.00,WUHU216DAVISVP2,2013-08-23 15:58:00,
2013-08-23 11:59:00,71.9,67.2,29.33,ENE,66,3.0,6.0,85,0.00,,,0.00,WUHU216DAVISVP2,2013-08-23 15:59:00,
2013-08-23 12:01:00,71.8,67.1,29.32,ENE,66,5.0,6.0,85,0.00,,,0.00,WUHU216DAVISVP2,2013-08-23 16:01:00,
2013-08-23 12:02:00,71.7,67.0,29.32,North,349,4.0,6.0,85,0.00,,,0.00,WUHU216DAVISVP2,2013-08-23 16:02:00,
2013-08-23 12:03:00,71.7,67.0,29.32,North,349,0.0,6.0,85,0.00,,,0.00,WUHU216DAVISVP2,2013-08-23 16:03:00,
2013-08-23 12:04:00,71.7,67.3,29.32,NW,311,0.0,6.0,86,0.00,,,0.00,WUHU216DAVISVP2,2013-08-23 16:04:00,
2013-08-23 12:06:00,71.8,67.4,29.32,NW,311,0.0,6.0,86,0.00,,,0.00,WUHU216DAVISVP2,2013-08-23 16:06:00,
2013-08-23 12:07:00,72.0,67.6,29.32,NW,311,1.0,6.0,86,0.00,,,0.00,WUHU216DAVISVP2,2013-08-23 16:07:00,
2013-08-23 12:08:00,72.1,67.7,29.32,NW,312,2.0,6.0,86,0.00,,,0.00,WUHU216DAVISVP2,2013-08-23 16:08:00,
2013-08-23 12:09:00,72.3,67.6,29.32,ESE,109,3.0,6.0,85,0.00,,,0.00,WUHU216DAVISVP2,2013-08-23 16:09:00,
2013-08-23 12:11:00,72.5,67.8,29.32,ESE,116,4.0,5.0,85,0.00,,,0.00,WUHU216DAVISVP2,2013-08-23 16:11:00,
2013-08-23 12:12:00,72.7,68.0,29.32,ESE,116,0.0,5.0,85,0.00,,,0.00,WUHU216DAVISVP2,2013-08-23 16:12:00,
2013-08-23 12:13:00,72.8,68.1,29.32,ESE,116,0.0,5.0,85,0.00,,,0.00,WUHU216DAVISVP2,2013-08-23 16:13:00,
2013-08-23 12:14:00,73.1,68.4,29.32,ENE,64,4.0,6.0,85,0.00,,,0.00,WUHU216DAVISVP2,2013-08-23 16:14:00,
2013-08-23 12:16:00,73.4,68.3,29.32,ENE,64,1.0,6.0,84,0.00,,,0.00,WUHU216DAVISVP2,2013-08-23 16:16:00,
2013-08-23 12:17:00,73.6,68.2,29.32,ENE,64,2.0,6.0,83,0.00,,,0.00,WUHU216DAVISVP2,2013-08-23 16:17:00,
2013-08-23 12:18:00,73.8,68.0,29.32,ENE,64,1.0,6.0,82,0.00,,,0.00,WUHU216DAVISVP2,2013-08-23 16:18:00,
2013-08-23 12:19:00,73.9,68.1,29.32,NE,41,2.0,6.0,82,0.00,,,0.00,WUHU216DAVISVP2,2013-08-23 16:19:00,
2013-08-23 12:20:00,74.0,68.2,29.33,NE,41,2.0,6.0,82,0.00,,,0.00,WUHU216DAVISVP2,2013-08-23 16:20:00,
2013-08-23 12:21:00,74.0,67.9,29.33,NE,41,2.0,6.0,81,0.00,,,0.00,WUHU216DAVISVP2,2013-08-23 16:21:00,
2013-08-23 12:22:00,73.9,67.8,29.33,NE,36,2.0,6.0,81,0.00,,,0.00,WUHU216DAVISVP2,2013-08-23 16:22:00,
2013-08-23 12:24:00,73.9,67.8,29.33,NE,36,2.0,6.0,81,0.00,,,0.00,WUHU216DAVISVP2,2013-08-23 16:24:00,
2013-08-23 12:25:00,73.8,67.7,29.32,NNW,330,0.0,6.0,81,0.00,,,0.00,WUHU216DAVISVP2,2013-08-23 16:25:00,
2013-08-23 12:26:00,73.7,67.6,29.32,NNW,330,2.0,6.0,81,0.00,,,0.00,WUHU216DAVISVP2,2013-08-23 16:26:00,
2013-08-23 12:28:00,73.7,67.6,29.32,SW,215,0.0,6.0,81,0.00,,,0.00,WUHU216DAVISVP2,2013-08-23 16:28:00,
2013-08-23 12:29:00,73.8,68.0,29.32,South,180,4.0,6.0,82,0.00,,,0.00,WUHU216DAVISVP2,2013-08-23 16:29:00,
2013-08-23 12:31:00,73.9,67.8,29.32,South,180,0.0,6.0,81,0.00,,,0.00,WUHU216DAVISVP2,2013-08-23 16:31:00,
2013-08-23 12:33:00,74.0,67.9,29.32,South,180,1.0,6.0,81,0.00,,,0.00,WUHU216DAVISVP2,2013-08-23 16:33:00,
2013-08-23 12:34:00,74.0,67.9,29.32,South,180,0.0,6.0,81,0.00,,,0.00,WUHU216DAVISVP2,2013-08-23 16:34:00,
2013-08-23 12:36:00,74.3,68.2,29.32,South,180,0.0,6.0,81,0.00,,,0.00,WUHU216DAVISVP2,2013-08-23 16:36:00,
2013-08-23 12:38:00,74.6,68.1,29.32,South,180,0.0,6.0,80,0.00,,,0.00,WUHU216DAVISVP2,2013-08-23 16:38:00,
2013-08-23 12:39:00,74.8,68.3,29.32,South,180,0.0,6.0,80,0.00,,,0.00,WUHU216DAVISVP2,2013-08-23 16:39:00,
2013-08-23 12:41:00,75.1,68.6,29.32,South,179,0.0,6.0,80,0.00,,,0.00,WUHU216DAVISVP2,2013-08-23 16:41:00,
2013-08-23 12:42:00,75.4,68.9,29.32,SSE,152,1.0,6.0,80,0.00,,,0.00,WUHU216DAVISVP2,2013-08-23 16:42:00,
2013-08-23 12:44:00,75.7,68.5,29.32,East,91,2.0,5.0,78,0.00,,,0.00,WUHU216DAVISVP2,2013-08-23 16:44:00,
2013-08-23 12:46:00,76.1,68.9,29.32,SSW,210,0.0,7.0,78,0.00,,,0.00,WUHU216DAVISVP2,2013-08-23 16:46:00,
2013-08-23 12:47:00,76.1,68.9,29.32,SSW,210,0.0,7.0,78,0.00,,,0.00,WUHU216DAVISVP2,2013-08-23 16:47:00,
2013-08-23 12:49:00,76.2,69.3,29.32,SSW,209,1.0,7.0,79,0.00,,,0.00,WUHU216DAVISVP2,2013-08-23 16:49:00,
2013-08-23 12:52:00,76.3,68.6,29.31,ESE,110,2.0,7.0,77,0.00,,,0.00,WUHU216DAVISVP2,2013-08-23 16:52:00,
2013-08-23 12:53:00,76.4,68.3,29.31,SE,128,0.0,7.0,76,0.00,,,0.00,WUHU216DAVISVP2,2013-08-23 16:53:00,
2013-08-23 12:55:00,76.5,68.7,29.31,ESE,102,1.0,7.0,77,0.00,,,0.00,WUHU216DAVISVP2,2013-08-23 16:55:00,
2013-08-23 12:57:00,76.9,69.6,29.31,ESE,102,0.0,7.0,78,0.00,,,0.00,WUHU216DAVISVP2,2013-08-23 16:57:00,
2013-08-23 12:58:00,77.1,69.5,29.31,ESE,112,2.0,7.0,77,0.00,,,0.00,WUHU216DAVISVP2,2013-08-23 16:58:00,
2013-08-23 13:00:00,77.3,69.3,29.31,ESE,112,0.0,7.0,76,0.00,,,0.00,WUHU216DAVISVP2,2013-08-23 17:00:00,
2013-08-23 13:02:00,77.4,69.0,29.31,ENE,74,2.0,7.0,75,0.00,,,0.00,WUHU216DAVISVP2,2013-08-23 17:02:00,
2013-08-23 13:03:00,77.4,69.0,29.32,ESE,102,5.0,7.0,75,0.00,,,0.00,WUHU216DAVISVP2,2013-08-23 17:03:00,
2013-08-23 13:05:00,77.3,68.5,29.32,SW,233,4.0,6.0,74,0.00,,,0.00,WUHU216DAVISVP2,2013-08-23 17:05:00,
2013-08-23 13:07:00,77.2,68.8,29.32,WSW,243,2.0,7.0,75,0.00,,,0.00,WUHU216DAVISVP2,2013-08-23 17:07:00,
2013-08-23 13:08:00,77.1,69.1,29.31,WSW,243,0.0,7.0,76,0.00,,,0.00,WUHU216DAVISVP2,2013-08-23 17:08:00,
2013-08-23 13:10:00,77.1,69.1,29.31,WSW,243,0.0,7.0,76,0.00,,,0.00,WUHU216DAVISVP2,2013-08-23 17:10:00,
2013-08-23 13:12:00,77.2,68.8,29.31,WSW,243,0.0,7.0,75,0.00,,,0.00,WUHU216DAVISVP2,2013-08-23 17:12:00,
2013-08-23 13:13:00,77.4,68.6,29.31,NNE,21,4.0,7.0,74,0.00,,,0.00,WUHU216DAVISVP2,2013-08-23 17:13:00,
2013-08-23 13:16:00,78.4,68.8,29.31,East,89,6.0,8.0,72,0.00,,,0.00,WUHU216DAVISVP2,2013-08-23 17:16:00,
2013-08-23 13:17:00,78.6,68.6,29.31,ESE,112,6.0,8.0,71,0.00,,,0.00,WUHU216DAVISVP2,2013-08-23 17:17:00,
2013-08-23 13:18:00,78.7,68.3,29.31,ESE,113,6.0,8.0,70,0.00,,,0.00,WUHU216DAVISVP2,2013-08-23 17:18:00,
2013-08-23 13:21:00,78.4,67.6,29.31,ENE,77,4.0,8.0,69,0.00,,,0.00,WUHU216DAVISVP2,2013-08-23 17:21:00,
2013-08-23 13:22:00,78.4,68.0,29.31,NE,43,4.0,8.0,70,0.00,,,0.00,WUHU216DAVISVP2,2013-08-23 17:22:00,
2013-08-23 13:23:00,78.4,68.0,29.31,East,89,5.0,8.0,70,0.00,,,0.00,WUHU216DAVISVP2,2013-08-23 17:23:00,
2013-08-23 13:26:00,78.7,67.9,29.31,ENE,66,5.0,8.0,69,0.00,,,0.00,WUHU216DAVISVP2,2013-08-23 17:26:00,
2013-08-23 13:27:00,78.8,68.0,29.31,ENE,62,3.0,8.0,69,0.00,,,0.00,WUHU216DAVISVP2,2013-08-23 17:27:00,
2013-08-23 13:28:00,78.8,68.0,29.31,NE,43,4.0,8.0,69,0.00,,,0.00,WUHU216DAVISVP2,2013-08-23 17:28:00,
2013-08-23 13:29:00,78.7,67.5,29.31,NE,43,2.0,8.0,68,0.00,,,0.00,WUHU216DAVISVP2,2013-08-23 17:29:00,
2013-08-23 13:32:00,78.7,67.5,29.31,NE,47,4.0,8.0,68,0.00,,,0.00,WUHU216DAVISVP2,2013-08-23 17:32:00,
2013-08-23 13:33:00,78.7,67.1,29.31,East,101,6.0,8.0,67,0.00,,,0.00,WUHU216DAVISVP2,2013-08-23 17:33:00,
2013-08-23 13:34:00,78.5,66.4,29.31,East,97,6.0,8.0,66,0.00,,,0.00,WUHU216DAVISVP2,2013-08-23 17:34:00,
2013-08-23 13:37:00,78.2,66.6,29.31,East,86,1.0,8.0,67,0.00,,,0.00,WUHU216DAVISVP2,2013-08-23 17:37:00,
2013-08-23 13:38:00,78.2,66.6,29.31,ENE,62,4.0,8.0,67,0.00,,,0.00,WUHU216DAVISVP2,2013-08-23 17:38:00,
2013-08-23 13:39:00,78.2,66.6,29.31,ENE,62,5.0,8.0,67,0.00,,,0.00,WUHU216DAVISVP2,2013-08-23 17:39:00,
2013-08-23 13:42:00,78.5,66.9,29.31,ENE,67,0.0,8.0,67,0.00,,,0.00,WUHU216DAVISVP2,2013-08-23 17:42:00,
2013-08-23 13:43:00,78.6,67.0,29.31,NNE,30,6.0,8.0,67,0.00,,,0.00,WUHU216DAVISVP2,2013-08-23 17:43:00,
2013-08-23 13:44:00,78.9,66.8,29.31,ENE,64,5.0,8.0,66,0.00,,,0.00,WUHU216DAVISVP2,2013-08-23 17:44:00,
2013-08-23 13:45:00,78.9,66.8,29.31,North,4,4.0,8.0,66,0.00,,,0.00,WUHU216DAVISVP2,2013-08-23 17:45:00,
2013-08-23 13:47:00,79.1,66.6,29.31,North,10,3.0,8.0,65,0.00,,,0.00,WUHU216DAVISVP2,2013-08-23 17:47:00,
2013-08-23 13:48:00,79.4,66.8,29.31,NE,48,8.0,9.0,65,0.00,,,0.00,WUHU216DAVISVP2,2013-08-23 17:48:00,
2013-08-23 13:50:00,79.6,66.6,29.31,East,97,6.0,10.0,64,0.00,,,0.00,WUHU216DAVISVP2,2013-08-23 17:50:00,
2013-08-23 13:52:00,79.6,65.7,29.31,ESE,112,1.0,10.0,62,0.00,,,0.00,WUHU216DAVISVP2,2013-08-23 17:52:00,
2013-08-23 13:53:00,79.6,66.1,29.31,ESE,106,0.0,10.0,63,0.00,,,0.00,WUHU216DAVISVP2,2013-08-23 17:53:00,
2013-08-23 13:55:00,79.7,66.7,29.31,ENE,61,6.0,10.0,64,0.00,,,0.00,WUHU216DAVISVP2,2013-08-23 17:55:00,
2013-08-23 13:57:00,79.8,66.8,29.31,ENE,58,6.0,10.0,64,0.00,,,0.00,WUHU216DAVISVP2,2013-08-23 17:57:00,
2013-08-23 13:58:00,79.9,66.4,29.31,ESE,116,5.0,10.0,63,0.00,,,0.00,WUHU216DAVISVP2,2013-08-23 17:58:00,
2013-08-23 13:59:00,79.9,65.5,29.31,ESE,112,3.0,10.0,61,0.00,,,0.00,WUHU216DAVISVP2,2013-08-23 17:59:00,
2013-08-23 14:00:00,79.9,65.5,29.31,East,87,5.0,10.0,61,0.00,,,0.00,WUHU216DAVISVP2,2013-08-23 18:00:00,
2013-08-23 14:01:00,79.9,66.0,29.31,East,83,4.0,10.0,62,0.00,,,0.00,WUHU216DAVISVP2,2013-08-23 18:01:00,
2013-08-23 14:02:00,79.8,65.4,29.31,ESE,104,2.0,10.0,61,0.00,,,0.00,WUHU216DAVISVP2,2013-08-23 18:02:00,
2013-08-23 14:03:00,79.9,65.5,29.31,ENE,66,1.0,10.0,61,0.00,,,0.00,WUHU216DAVISVP2,2013-08-23 18:03:00,
2013-08-23 14:04:00,80.0,65.6,29.31,ENE,66,3.0,10.0,61,0.00,,,0.00,WUHU216DAVISVP2,2013-08-23 18:04:00,
2013-08-23 14:05:00,80.2,65.3,29.31,NE,55,0.0,10.0,60,0.00,,,0.00,WUHU216DAVISVP2,2013-08-23 18:05:00,
2013-08-23 14:06:00,80.3,65.9,29.31,NE,54,2.0,10.0,61,0.00,,,0.00,WUHU216DAVISVP2,2013-08-23 18:06:00,
2013-08-23 14:07:00,80.4,64.5,29.31,NNE,27,5.0,10.0,58,0.00,,,0.00,WUHU216DAVISVP2,2013-08-23 18:07:00,
2013-08-23 14:08:00,80.5,64.6,29.31,East,100,5.0,10.0,58,0.00,,,0.00,WUHU216DAVISVP2,2013-08-23 18:08:00,
2013-08-23 14:09:00,80.6,64.7,29.31,North,4,1.0,10.0,58,0.00,,,0.00,WUHU216DAVISVP2,2013-08-23 18:09:00,
2013-08-23 14:11:00,80.8,63.3,29.31,NNE,33,6.0,10.0,55,0.00,,,0.00,WUHU216DAVISVP2,2013-08-23 18:11:00,
2013-08-23 14:12:00,80.8,62.2,29.31,NE,50,8.0,11.0,53,0.00,,,0.00,WUHU216DAVISVP2,2013-08-23 18:12:00,
2013-08-23 14:13:00,80.9,62.9,29.31,NE,52,8.0,11.0,54,0.00,,,0.00,WUHU216DAVISVP2,2013-08-23 18:13:00,
2013-08-23 14:14:00,80.8,63.3,29.31,ENE,62,9.0,11.0,55,0.00,,,0.00,WUHU216DAVISVP2,2013-08-23 18:14:00,
2013-08-23 14:16:00,80.7,64.3,29.31,East,81,5.0,11.0,57,0.00,,,0.00,WUHU216DAVISVP2,2013-08-23 18:16:00,
2013-08-23 14:17:00,80.7,63.8,29.31,NE,43,8.0,11.0,56,0.00,,,0.00,WUHU216DAVISVP2,2013-08-23 18:17:00,
2013-08-23 14:18:00,80.7,63.8,29.31,NE,45,0.0,11.0,56,0.00,,,0.00,WUHU216DAVISVP2,2013-08-23 18:18:00,
2013-08-23 14:20:00,80.7,63.2,29.31,East,95,3.0,11.0,55,0.00,,,0.00,WUHU216DAVISVP2,2013-08-23 18:20:00,
2013-08-23 14:21:00,80.6,63.7,29.31,ENE,74,6.0,11.0,56,0.00,,,0.00,WUHU216DAVISVP2,2013-08-23 18:21:00,
2013-08-23 14:23:00,80.5,63.6,29.31,NE,55,13.0,13.0,56,0.00,,,0.00,WUHU216DAVISVP2,2013-08-23 18:23:00,
2013-08-23 14:25:00,80.4,61.9,29.31,NE,41,8.0,15.0,53,0.00,,,0.00,WUHU216DAVISVP2,2013-08-23 18:25:00,
2013-08-23 14:26:00,80.5,62.5,29.31,East,87,5.0,15.0,54,0.00,,,0.00,WUHU216DAVISVP2,2013-08-23 18:26:00,
2013-08-23 14:27:00,80.5,62.5,29.31,East,83,2.0,15.0,54,0.00,,,0.00,WUHU216DAVISVP2,2013-08-23 18:27:00,
2013-08-23 14:28:00,80.5,63.0,29.31,ENE,76,6.0,15.0,55,0.00,,,0.00,WUHU216DAVISVP2,2013-08-23 18:28:00,
2013-08-23 14:30:00,80.5,62.5,29.31,ENE,68,1.0,15.0,54,0.00,,,0.00,WUHU216DAVISVP2,2013-08-23 18:30:00,
2013-08-23 14:31:00,80.5,63.6,29.31,ENE,70,4.0,15.0,56,0.00,,,0.00,WUHU216DAVISVP2,2013-08-23 18:31:00,
2013-08-23 14:32:00,80.5,63.6,29.31,ENE,68,6.0,15.0,56,0.00,,,0.00,WUHU216DAVISVP2,2013-08-23 18:32:00,
2013-08-23 14:33:00,80.7,64.3,29.31,ENE,68,5.0,15.0,57,0.00,,,0.00,WUHU216DAVISVP2,2013-08-23 18:33:00,
2013-08-23 14:34:00,80.8,64.4,29.31,ENE,73,5.0,15.0,57,0.00,,,0.00,WUHU216DAVISVP2,2013-08-23 18:34:00,
2013-08-23 14:35:00,80.9,63.9,29.31,NE,53,6.0,15.0,56,0.00,,,0.00,WUHU216DAVISVP2,2013-08-23 18:35:00,
2013-08-23 14:36:00,80.9,63.9,29.31,NE,53,2.0,15.0,56,0.00,,,0.00,WUHU216DAVISVP2,2013-08-23 18:36:00,
2013-08-23 14:37:00,81.0,64.0,29.31,NE,53,0.0,15.0,56,0.00,,,0.00,WUHU216DAVISVP2,2013-08-23 18:37:00,
2013-08-23 14:38:00,81.0,64.0,29.31,NE,56,5.0,15.0,56,0.00,,,0.00,WUHU216DAVISVP2,2013-08-23 18:38:00,
2013-08-23 14:39:00,81.0,64.0,29.31,ENE,66,5.0,15.0,56,0.00,,,0.00,WUHU216DAVISVP2,2013-08-23 18:39:00,
2013-08-23 14:40:00,80.9,62.9,29.31,NE,55,7.0,15.0,54,0.00,,,0.00,WUHU216DAVISVP2,2013-08-23 18:40:00,
2013-08-23 14:41:00,80.9,62.9,29.31,ESE,103,5.0,15.0,54,0.00,,,0.00,WUHU216DAVISVP2,2013-08-23 18:41:00,
2013-08-23 14:42:00,80.7,61.6,29.31,East,91,5.0,9.0,52,0.00,,,0.00,WUHU216DAVISVP2,2013-08-23 18:42:00,
2013-08-23 14:43:00,80.5,60.8,29.31,ESE,102,6.0,9.0,51,0.00,,,0.00,WUHU216DAVISVP2,2013-08-23 18:43:00,
2013-08-23 14:44:00,80.4,60.7,29.31,ESE,102,2.0,9.0,51,0.00,,,0.00,WUHU216DAVISVP2,2013-08-23 18:44:00,
2013-08-23 14:45:00,80.4,61.3,29.31,ENE,64,6.0,8.0,52,0.00,,,0.00,WUHU216DAVISVP2,2013-08-23 18:45:00,
2013-08-23 14:46:00,80.4,61.3,29.31,NNE,15,7.0,8.0,52,0.00,,,0.00,WUHU216DAVISVP2,2013-08-23 18:46:00,
2013-08-23 14:47:00,80.4,61.3,29.31,NNE,12,5.0,8.0,52,0.00,,,0.00,WUHU216DAVISVP2,2013-08-23 18:47:00,
2013-08-23 14:48:00,80.4,61.3,29.31,East,95,6.0,8.0,52,0.00,,,0.00,WUHU216DAVISVP2,2013-08-23 18:48:00,
2013-08-23 14:49:00,80.4,61.9,29.31,ESE,107,7.0,9.0,53,0.00,,,0.00,WUHU216DAVISVP2,2013-08-23 18:49:00,
2013-08-23 14:50:00,80.4,62.4,29.31,ENE,62,8.0,11.0,54,0.00,,,0.00,WUHU216DAVISVP2,2013-08-23 18:50:00,
2013-08-23 14:52:00,80.5,62.5,29.31,NNE,33,6.0,11.0,54,0.00,,,0.00,WUHU216DAVISVP2,2013-08-23 18:52:00,
2013-08-23 14:53:00,80.6,62.6,29.31,NE,48,6.0,11.0,54,0.00,,,0.00,WUHU216DAVISVP2,2013-08-23 18:53:00,
2013-08-23 14:54:00,80.6,62.6,29.31,ENE,57,6.0,11.0,54,0.00,,,0.00,WUHU216DAVISVP2,2013-08-23 18:54:00,
2013-08-23 14:56:00,80.7,62.1,29.31,NE,35,7.0,11.0,53,0.00,,,0.00,WUHU216DAVISVP2,2013-08-23 18:56:00,
2013-08-23 14:57:00,80.7,62.1,29.31,NE,54,8.0,11.0,53,0.00,,,0.00,WUHU216DAVISVP2,2013-08-23 18:57:00,
2013-08-23 14:59:00,80.8,62.2,29.31,ENE,73,5.0,11.0,53,0.00,,,0.00,WUHU216DAVISVP2,2013-08-23 18:59:00,
2013-08-23 15:01:00,80.8,62.2,29.31,NNE,31,6.0,12.0,53,0.00,,,0.00,WUHU216DAVISVP2,2013-08-23 19:01:00,
2013-08-23 15:02:00,80.7,62.1,29.31,NNE,17,5.0,12.0,53,0.00,,,0.00,WUHU216DAVISVP2,2013-08-23 19:02:00,
2013-08-23 15:04:00,80.5,62.0,29.30,NNE,18,2.0,12.0,53,0.00,,,0.00,WUHU216DAVISVP2,2013-08-23 19:04:00,
2013-08-23 15:05:00,80.5,62.0,29.30,NNE,17,2.0,12.0,53,0.00,,,0.00,WUHU216DAVISVP2,2013-08-23 19:05:00,
2013-08-23 15:06:00,80.4,61.9,29.30,NNE,17,3.0,12.0,53,0.00,,,0.00,WUHU216DAVISVP2,2013-08-23 19:06:00,
2013-08-23 15:07:00,80.5,63.0,29.30,NNE,17,0.0,12.0,55,0.00,,,0.00,WUHU216DAVISVP2,2013-08-23 19:07:00,
2013-08-23 15:08:00,80.5,63.0,29.30,East,96,6.0,12.0,55,0.00,,,0.00,WUHU216DAVISVP2,2013-08-23 19:08:00,
2013-08-23 15:09:00,80.6,62.6,29.30,ENE,71,4.0,12.0,54,0.00,,,0.00,WUHU216DAVISVP2,2013-08-23 19:09:00,
2013-08-23 15:10:00,80.8,62.8,29.30,East,90,2.0,12.0,54,0.00,,,0.00,WUHU216DAVISVP2,2013-08-23 19:10:00,
2013-08-23 15:11:00,80.9,62.9,29.30,East,97,6.0,12.0,54,0.00,,,0.00,WUHU216DAVISVP2,2013-08-23 19:11:00,
2013-08-23 15:12:00,81.0,62.4,29.30,NE,47,7.0,12.0,53,0.00,,,0.00,WUHU216DAVISVP2,2013-08-23 19:12:00,
2013-08-23 15:13:00,81.0,62.4,29.30,NNE,27,6.0,12.0,53,0.00,,,0.00,WUHU216DAVISVP2,2013-08-23 19:13:00,
2013-08-23 15:14:00,81.1,62.5,29.30,ENE,70,6.0,12.0,53,0.00,,,0.00,WUHU216DAVISVP2,2013-08-23 19:14:00,
2013-08-23 15:15:00,81.1,62.0,29.30,NE,56,6.0,12.0,52,0.00,,,0.00,WUHU216DAVISVP2,2013-08-23 19:15:00,
2013-08-23 15:16:00,81.2,62.1,29.30,ENE,58,5.0,12.0,52,0.00,,,0.00,WUHU216DAVISVP2,2013-08-23 19:16:00,
2013-08-23 15:17:00,81.3,61.6,29.30,NE,39,6.0,12.0,51,0.00,,,0.00,WUHU216DAVISVP2,2013-08-23 19:17:00,
2013-08-23 15:18:00,81.2,62.1,29.30,NE,41,8.0,12.0,52,0.00,,,0.00,WUHU216DAVISVP2,2013-08-23 19:18:00,
2013-08-23 15:19:00,81.2,62.1,29.30,NE,50,9.0,9.0,52,0.00,,,0.00,WUHU216DAVISVP2,2013-08-23 19:19:00,
2013-08-23 15:20:00,81.2,61.5,29.30,ENE,68,6.0,10.0,51,0.00,,,0.00,WUHU216DAVISVP2,2013-08-23 19:20:00,
2013-08-23 15:21:00,81.2,62.1,29.30,NE,36,5.0,10.0,52,0.00,,,0.00,WUHU216DAVISVP2,2013-08-23 19:21:00,
2013-08-23 15:22:00,81.3,63.2,29.30,NE,35,7.0,10.0,54,0.00,,,0.00,WUHU216DAVISVP2,2013-08-23 19:22:00,
2013-08-23 15:23:00,81.3,62.7,29.30,NNE,33,5.0,10.0,53,0.00,,,0.00,WUHU216DAVISVP2,2013-08-23 19:23:00,
2013-08-23 15:25:00,81.3,63.2,29.30,NE,56,4.0,10.0,54,0.00,,,0.00,WUHU216DAVISVP2,2013-08-23 19:25:00,
2013-08-23 15:26:00,81.3,62.1,29.30,ENE,77,6.0,10.0,52,0.00,,,0.00,WUHU216DAVISVP2,2013-08-23 19:26:00,
2013-08-23 15:28:00,81.2,62.1,29.30,ENE,71,2.0,10.0,52,0.00,,,0.00,WUHU216DAVISVP2,2013-08-23 19:28:00,
2013-08-23 15:29:00,81.2,62.1,29.30,NE,54,7.0,10.0,52,0.00,,,0.00,WUHU216DAVISVP2,2013-08-23 19:29:00,
2013-08-23 15:30:00,81.2,62.1,29.30,NE,48,6.0,10.0,52,0.00,,,0.00,WUHU216DAVISVP2,2013-08-23 19:30:00,
2013-08-23 15:31:00,81.3,62.7,29.29,NE,56,4.0,10.0,53,0.00,,,0.00,WUHU216DAVISVP2,2013-08-23 19:31:00,
2013-08-23 15:33:00,81.5,63.3,29.29,ENE,68,7.0,10.0,54,0.00,,,0.00,WUHU216DAVISVP2,2013-08-23 19:33:00,
2013-08-23 15:34:00,81.6,62.8,29.29,ENE,73,4.0,10.0,53,0.00,,,0.00,WUHU216DAVISVP2,2013-08-23 19:34:00,
2013-08-23 15:35:00,81.6,62.8,29.29,ENE,73,1.0,10.0,53,0.00,,,0.00,WUHU216DAVISVP2,2013-08-23 19:35:00,
2013-08-23 15:36:00,81.6,62.8,29.29,East,83,6.0,10.0,53,0.00,,,0.00,WUHU216DAVISVP2,2013-08-23 19:36:00,
2013-08-23 15:38:00,81.4,62.1,29.29,ENE,78,8.0,10.0,52,0.00,,,0.00,WUHU216DAVISVP2,2013-08-23 19:38:00,
2013-08-23 15:40:00,81.3,61.4,29.29,East,83,7.0,10.0,51,0.00,,,0.00,WUHU216DAVISVP2,2013-08-23 19:40:00,
2013-08-23 15:41:00,81.1,61.3,29.29,ESE,103,7.0,9.0,51,0.00,,,0.00,WUHU216DAVISVP2,2013-08-23 19:41:00,
2013-08-23 15:42:00,80.8,61.5,29.29,East,91,6.0,9.0,52,0.00,,,0.00,WUHU216DAVISVP2,2013-08-23 19:42:00,
2013-08-23 15:43:00,80.7,62.0,29.29,East,82,4.0,9.0,53,0.00,,,0.00,WUHU216DAVISVP2,2013-08-23 19:43:00,
2013-08-23 15:45:00,80.6,61.9,29.29,ENE,70,1.0,9.0,53,0.00,,,0.00,WUHU216DAVISVP2,2013-08-23 19:45:00,
2013-08-23 15:46:00,80.7,62.0,29.29,ENE,70,0.0,9.0,53,0.00,,,0.00,WUHU216DAVISVP2,2013-08-23 19:46:00,
2013-08-23 15:47:00,80.9,62.3,29.29,ENE,70,2.0,9.0,53,0.00,,,0.00,WUHU216DAVISVP2,2013-08-23 19:47:00,
2013-08-23 15:48:00,80.9,62.3,29.29,ENE,69,4.0,9.0,53,0.00,,,0.00,WUHU216DAVISVP2,2013-08-23 19:48:00,
2013-08-23 15:50:00,81.1,63.1,29.29,ENE,68,3.0,9.0,54,0.00,,,0.00,WUHU216DAVISVP2,2013-08-23 19:50:00,
2013-08-23 15:51:00,81.1,63.1,29.29,ENE,66,2.0,9.0,54,0.00,,,0.00,WUHU216DAVISVP2,2013-08-23 19:51:00,
2013-08-23 15:53:00,81.2,62.6,29.29,ENE,66,1.0,9.0,53,0.00,,,0.00,WUHU216DAVISVP2,2013-08-23 19:53:00,
2013-08-23 15:55:00,81.4,62.8,29.29,ESE,106,5.0,9.0,53,0.00,,,0.00,WUHU216DAVISVP2,2013-08-23 19:55:00,
2013-08-23 15:56:00,81.4,62.8,29.29,ESE,106,0.0,9.0,53,0.00,,,0.00,WUHU216DAVISVP2,2013-08-23 19:56:00,
2013-08-23 15:58:00,81.5,62.9,29.29,East,87,2.0,9.0,53,0.00,,,0.00,WUHU216DAVISVP2,2013-08-23 19:58:00,
2013-08-23 15:59:00,81.6,63.5,29.29,ENE,73,2.0,9.0,54,0.00,,,0.00,WUHU216DAVISVP2,2013-08-23 19:59:00,
2013-08-23 16:00:00,81.8,63.2,29.29,ENE,60,6.0,10.0,53,0.00,,,0.00,WUHU216DAVISVP2,2013-08-23 20:00:00,
2013-08-23 16:01:00,81.8,62.6,29.29,ENE,64,7.0,10.0,52,0.00,,,0.00,WUHU216DAVISVP2,2013-08-23 20:01:00,
2013-08-23 16:03:00,81.9,62.1,29.29,ENE,65,4.0,10.0,51,0.00,,,0.00,WUHU216DAVISVP2,2013-08-23 20:03:00,
2013-08-23 16:04:00,81.9,61.6,29.29,East,91,6.0,10.0,50,0.00,,,0.00,WUHU216DAVISVP2,2013-08-23 20:04:00,
2013-08-23 16:05:00,81.7,60.8,29.29,ENE,73,2.0,10.0,49,0.00,,,0.00,WUHU216DAVISVP2,2013-08-23 20:05:00,
2013-08-23 16:06:00,81.6,60.7,29.29,ENE,73,4.0,10.0,49,0.00,,,0.00,WUHU216DAVISVP2,2013-08-23 20:06:00,
2013-08-23 16:07:00,81.6,61.3,29.29,East,85,5.0,10.0,50,0.00,,,0.00,WUHU216DAVISVP2,2013-08-23 20:07:00,
2013-08-23 16:08:00,81.4,60.4,29.29,ENE,70,8.0,10.0,49,0.00,,,0.00,WUHU216DAVISVP2,2013-08-23 20:08:00,
2013-08-23 16:10:00,81.2,60.2,29.29,East,95,7.0,10.0,49,0.00,,,0.00,WUHU216DAVISVP2,2013-08-23 20:10:00,
2013-08-23 16:11:00,80.9,60.5,29.29,ESE,108,3.0,10.0,50,0.00,,,0.00,WUHU216DAVISVP2,2013-08-23 20:11:00,
2013-08-23 16:12:00,80.9,60.5,29.29,ESE,108,2.0,10.0,50,0.00,,,0.00,WUHU216DAVISVP2,2013-08-23 20:12:00,
2013-08-23 16:13:00,80.9,60.5,29.29,East,97,1.0,10.0,50,0.00,,,0.00,WUHU216DAVISVP2,2013-08-23 20:13:00,
2013-08-23 16:15:00,80.9,61.6,29.29,East,97,0.0,10.0,52,0.00,,,0.00,WUHU216DAVISVP2,2013-08-23 20:15:00,
2013-08-23 16:16:00,81.1,62.3,29.29,ENE,68,4.0,10.0,53,0.00,,,0.00,WUHU216DAVISVP2,2013-08-23 20:16:00,
2013-08-23 16:17:00,81.1,62.3,29.29,ENE,68,4.0,10.0,53,0.00,,,0.00,WUHU216DAVISVP2,2013-08-23 20:17:00,
2013-08-23 16:18:00,81.4,62.6,29.29,ENE,60,8.0,10.0,53,0.00,,,0.00,WUHU216DAVISVP2,2013-08-23 20:18:00,
2013-08-23 16:20:00,81.8,61.3,29.29,ENE,62,7.0,9.0,50,0.00,,,0.00,WUHU216DAVISVP2,2013-08-23 20:20:00,
2013-08-23 16:21:00,81.9,61.4,29.29,NE,56,7.0,9.0,50,0.00,,,0.00,WUHU216DAVISVP2,2013-08-23 20:21:00,
2013-08-23 16:22:00,82.1,61.6,29.29,ENE,78,4.0,9.0,50,0.00,,,0.00,WUHU216DAVISVP2,2013-08-23 20:22:00,
2013-08-23 16:23:00,82.1,61.0,29.29,ENE,73,1.0,9.0,49,0.00,,,0.00,WUHU216DAVISVP2,2013-08-23 20:23:00,
2013-08-23 16:26:00,82.2,61.7,29.28,ENE,73,2.0,9.0,50,0.00,,,0.00,WUHU216DAVISVP2,2013-08-23 20:26:00,
2013-08-23 16:27:00,82.2,61.8,29.28,North,359,7.0,9.0,50,0.00,,,0.00,WUHU216DAVISVP2,2013-08-23 20:27:00,
2013-08-23 16:29:00,82.2,62.4,29.28,NE,56,7.0,10.0,51,0.00,,,0.00,WUHU216DAVISVP2,2013-08-23 20:29:00,
2013-08-23 16:31:00,82.3,62.5,29.28,ENE,60,4.0,10.0,51,0.00,,,0.00,WUHU216DAVISVP2,2013-08-23 20:31:00,
2013-08-23 16:32:00,82.3,61.3,29.28,East,81,4.0,10.0,49,0.00,,,0.00,WUHU216DAVISVP2,2013-08-23 20:32:00,
2013-08-23 16:34:00,82.2,60.6,29.28,NE,55,5.0,10.0,48,0.00,,,0.00,WUHU216DAVISVP2,2013-08-23 20:34:00,
2013-08-23 16:36:00,82.3,60.7,29.28,East,81,5.0,10.0,48,0.00,,,0.00,WUHU216DAVISVP2,2013-08-23 20:36:00,
2013-08-23 16:37:00,82.3,60.1,29.29,ENE,68,6.0,10.0,47,0.00,,,0.00,WUHU216DAVISVP2,2013-08-23 20:37:00,
2013-08-23 16:38:00,82.3,60.7,29.29,ENE,66,7.0,10.0,48,0.00,,,0.00,WUHU216DAVISVP2,2013-08-23 20:38:00,
2013-08-23 16:39:00,82.3,60.6,29.28,ENE,58,7.0,10.0,48,0.00,,,0.00,WUHU216DAVISVP2,2013-08-23 20:39:00,
2013-08-23 16:41:00,82.4,60.1,29.29,ENE,68,4.0,10.0,47,0.00,,,0.00,WUHU216DAVISVP2,2013-08-23 20:41:00,
2013-08-23 16:42:00,82.4,60.8,29.29,East,91,6.0,10.0,48,0.00,,,0.00,WUHU216DAVISVP2,2013-08-23 20:42:00,
2013-08-23 16:43:00,82.3,60.1,29.29,East,85,7.0,10.0,47,0.00,,,0.00,WUHU216DAVISVP2,2013-08-23 20:43:00,
2013-08-23 16:44:00,82.1,60.6,29.28,East,79,4.0,10.0,48,0.00,,,0.00,WUHU216DAVISVP2,2013-08-23 20:44:00,
2013-08-23 16:46:00,81.8,60.9,29.28,ENE,74,6.0,10.0,49,0.00,,,0.00,WUHU216DAVISVP2,2013-08-23 20:46:00,
2013-08-23 16:47:00,81.7,60.2,29.28,ENE,77,1.0,10.0,48,0.00,,,0.00,WUHU216DAVISVP2,2013-08-23 20:47:00,
2013-08-23 16:48:00,81.7,60.8,29.28,ENE,77,1.0,9.0,49,0.00,,,0.00,WUHU216DAVISVP2,2013-08-23 20:48:00,
2013-08-23 16:49:00,81.7,60.8,29.28,ENE,77,0.0,9.0,49,0.00,,,0.00,WUHU216DAVISVP2,2013-08-23 20:49:00,
2013-08-23 16:51:00,81.8,60.9,29.28,ENE,77,1.0,9.0,49,0.00,,,0.00,WUHU216DAVISVP2,2013-08-23 20:51:00,
2013-08-23 16:52:00,81.8,60.9,29.28,ENE,77,2.0,9.0,49,0.00,,,0.00,WUHU216DAVISVP2,2013-08-23 20:52:00,
2013-08-23 16:53:00,81.8,60.3,29.28,ENE,77,0.0,9.0,48,0.00,,,0.00,WUHU216DAVISVP2,2013-08-23 20:53:00,
2013-08-23 16:55:00,81.9,61.0,29.29,NNE,21,7.0,9.0,49,0.00,,,0.00,WUHU216DAVISVP2,2013-08-23 20:55:00,
2013-08-23 16:56:00,81.9,60.4,29.29,NE,52,4.0,9.0,48,0.00,,,0.00,WUHU216DAVISVP2,2013-08-23 20:56:00,
2013-08-23 16:57:00,81.9,60.4,29.29,NNE,19,4.0,9.0,48,0.00,,,0.00,WUHU216DAVISVP2,2013-08-23 20:57:00,
2013-08-23 16:58:00,81.9,59.8,29.29,NNE,19,5.0,9.0,47,0.00,,,0.00,WUHU216DAVISVP2,2013-08-23 20:58:00,
2013-08-23 17:00:00,81.8,60.9,29.29,ENE,68,9.0,10.0,49,0.00,,,0.00,WUHU216DAVISVP2,2013-08-23 21:00:00,
2013-08-23 17:01:00,81.8,60.3,29.29,NE,45,6.0,10.0,48,0.00,,,0.00,WUHU216DAVISVP2,2013-08-23 21:01:00,
2013-08-23 17:02:00,81.9,60.4,29.29,NE,44,6.0,10.0,48,0.00,,,0.00,WUHU216DAVISVP2,2013-08-23 21:02:00,
2013-08-23 17:03:00,81.9,60.4,29.28,NE,50,9.0,10.0,48,0.00,,,0.00,WUHU216DAVISVP2,2013-08-23 21:03:00,
2013-08-23 17:05:00,81.9,61.0,29.29,NE,48,7.0,10.0,49,0.00,,,0.00,WUHU216DAVISVP2,2013-08-23 21:05:00,
2013-08-23 17:06:00,81.9,60.4,29.28,NE,44,2.0,10.0,48,0.00,,,0.00,WUHU216DAVISVP2,2013-08-23 21:06:00,
2013-08-23 17:07:00,82.0,61.7,29.28,NE,44,2.0,10.0,50,0.00,,,0.00,WUHU216DAVISVP2,2013-08-23 21:07:00,
2013-08-23 17:08:00,82.0,61.7,29.28,NE,44,4.0,10.0,50,0.00,,,0.00,WUHU216DAVISVP2,2013-08-23 21:08:00,
2013-08-23 17:09:00,82.0,61.1,29.28,NE,45,7.0,10.0,49,0.00,,,0.00,WUHU216DAVISVP2,2013-08-23 21:09:00,
2013-08-23 17:10:00,82.0,60.5,29.28,NE,45,4.0,10.0,48,0.00,,,0.00,WUHU216DAVISVP2,2013-08-23 21:10:00,
2013-08-23 17:12:00,82.0,61.1,29.28,NE,46,5.0,10.0,49,0.00,,,0.00,WUHU216DAVISVP2,2013-08-23 21:12:00,
2013-08-23 17:13:00,82.0,60.5,29.28,NE,46,2.0,10.0,48,0.00,,,0.00,WUHU216DAVISVP2,2013-08-23 21:13:00,
2013-08-23 17:14:00,82.1,60.6,29.29,NE,46,4.0,10.0,48,0.00,,,0.00,WUHU216DAVISVP2,2013-08-23 21:14:00,
2013-08-23 17:15:00,82.2,60.6,29.28,NE,46,2.0,10.0,48,0.00,,,0.00,WUHU216DAVISVP2,2013-08-23 21:15:00,
2013-08-23 17:17:00,82.1,61.2,29.28,NNE,14,3.0,10.0,49,0.00,,,0.00,WUHU216DAVISVP2,2013-08-23 21:17:00,
2013-08-23 17:18:00,82.0,61.1,29.28,NNE,24,3.0,10.0,49,0.00,,,0.00,WUHU216DAVISVP2,2013-08-23 21:18:00,
2013-08-23 17:19:00,82.0,61.1,29.28,NNE,24,2.0,10.0,49,0.00,,,0.00,WUHU216DAVISVP2,2013-08-23 21:19:00,
2013-08-23 17:20:00,82.0,61.7,29.28,NE,54,4.0,10.0,50,0.00,,,0.00,WUHU216DAVISVP2,2013-08-23 21:20:00,
2013-08-23 17:22:00,82.1,61.7,29.28,NE,49,4.0,9.0,50,0.00,,,0.00,WUHU216DAVISVP2,2013-08-23 21:22:00,
2013-08-23 17:23:00,82.1,62.3,29.28,ENE,74,1.0,8.0,51,0.00,,,0.00,WUHU216DAVISVP2,2013-08-23 21:23:00,
2013-08-23 17:24:00,82.2,61.8,29.28,ENE,74,2.0,7.0,50,0.00,,,0.00,WUHU216DAVISVP2,2013-08-23 21:24:00,
2013-08-23 17:26:00,82.3,62.5,29.28,ENE,57,2.0,7.0,51,0.00,,,0.00,WUHU216DAVISVP2,2013-08-23 21:26:00,
2013-08-23 17:27:00,82.3,61.3,29.28,NE,43,7.0,9.0,49,0.00,,,0.00,WUHU216DAVISVP2,2013-08-23 21:27:00,
2013-08-23 17:28:00,82.3,61.3,29.28,NNE,12,7.0,9.0,49,0.00,,,0.00,WUHU216DAVISVP2,2013-08-23 21:28:00,
2013-08-23 17:29:00,82.3,61.3,29.28,North,8,7.0,9.0,49,0.00,,,0.00,WUHU216DAVISVP2,2013-08-23 21:29:00,
2013-08-23 17:30:00,82.2,60.6,29.28,North,10,5.0,9.0,48,0.00,,,0.00,WUHU216DAVISVP2,2013-08-23 21:30:00,
2013-08-23 17:31:00,82.1,61.2,29.28,NNE,14,6.0,9.0,49,0.00,,,0.00,WUHU216DAVISVP2,2013-08-23 21:31:00,
2013-08-23 17:32:00,82.0,61.1,29.28,NE,43,8.0,9.0,49,0.00,,,0.00,WUHU216DAVISVP2,2013-08-23 21:32:00,
2013-08-23 17:33:00,82.0,61.1,29.29,NE,52,7.0,9.0,49,0.00,,,0.00,WUHU216DAVISVP2,2013-08-23 21:33:00,
2013-08-23 17:34:00,82.0,61.1,29.29,NE,55,6.0,9.0,49,0.00,,,0.00,WUHU216DAVISVP2,2013-08-23 21:34:00,
2013-08-23 17:35:00,82.1,61.2,29.29,NE,54,4.0,9.0,49,0.00,,,0.00,WUHU216DAVISVP2,2013-08-23 21:35:00,
2013-08-23 17:36:00,82.1,61.2,29.28,NE,53,4.0,9.0,49,0.00,,,0.00,WUHU216DAVISVP2,2013-08-23 21:36:00,
2013-08-23 17:38:00,82.1,60.6,29.28,NE,41,1.0,9.0,48,0.00,,,0.00,WUHU216DAVISVP2,2013-08-23 21:38:00,
2013-08-23 17:39:00,82.1,60.6,29.28,NE,41,1.0,9.0,48,0.00,,,0.00,WUHU216DAVISVP2,2013-08-23 21:39:00,
2013-08-23 17:40:00,82.1,61.2,29.28,NE,41,0.0,9.0,49,0.00,,,0.00,WUHU216DAVISVP2,2013-08-23 21:40:00,
2013-08-23 17:42:00,82.1,61.7,29.28,NE,46,6.0,9.0,50,0.00,,,0.00,WUHU216DAVISVP2,2013-08-23 21:42:00,
2013-08-23 17:43:00,82.1,61.7,29.28,NE,40,1.0,9.0,50,0.00,,,0.00,WUHU216DAVISVP2,2013-08-23 21:43:00,
2013-08-23 17:44:00,82.2,61.2,29.28,ENE,74,6.0,9.0,49,0.00,,,0.00,WUHU216DAVISVP2,2013-08-23 21:44:00,
2013-08-23 17:45:00,82.2,61.2,29.28,ENE,60,10.0,10.0,49,0.00,,,0.00,WUHU216DAVISVP2,2013-08-23 21:45:00,
2013-08-23 17:47:00,82.2,60.6,29.28,NE,50,6.0,10.0,48,0.00,,,0.00,WUHU216DAVISVP2,2013-08-23 21:47:00,
2013-08-23 17:48:00,82.1,61.2,29.28,NNE,31,9.0,10.0,49,0.00,,,0.00,WUHU216DAVISVP2,2013-08-23 21:48:00,
2013-08-23 17:49:00,82.0,61.1,29.28,NE,44,11.0,11.0,49,0.00,,,0.00,WUHU216DAVISVP2,2013-08-23 21:49:00,
2013-08-23 17:50:00,81.8,60.9,29.29,NE,54,6.0,11.0,49,0.00,,,0.00,WUHU216DAVISVP2,2013-08-23 21:50:00,
2013-08-23 17:52:00,81.8,61.5,29.29,NE,45,8.0,11.0,50,0.00,,,0.00,WUHU216DAVISVP2,2013-08-23 21:52:00,
2013-08-23 17:53:00,81.7,60.8,29.29,ENE,67,7.0,11.0,49,0.00,,,0.00,WUHU216DAVISVP2,2013-08-23 21:53:00,
2013-08-23 17:54:00,81.7,60.8,29.29,NE,50,6.0,11.0,49,0.00,,,0.00,WUHU216DAVISVP2,2013-08-23 21:54:00,
2013-08-23 17:55:00,81.7,60.8,29.29,ENE,57,7.0,11.0,49,0.00,,,0.00,WUHU216DAVISVP2,2013-08-23 21:55:00,
2013-08-23 17:57:00,81.8,60.9,29.28,ENE,60,6.0,11.0,49,0.00,,,0.00,WUHU216DAVISVP2,2013-08-23 21:57:00,
2013-08-23 17:58:00,81.8,60.9,29.28,ENE,64,5.0,11.0,49,0.00,,,0.00,WUHU216DAVISVP2,2013-08-23 21:58:00,
2013-08-23 17:59:00,81.8,60.9,29.28,ENE,63,6.0,11.0,49,0.00,,,0.00,WUHU216DAVISVP2,2013-08-23 21:59:00,
2013-08-23 18:00:00,81.8,61.5,29.28,ENE,62,6.0,11.0,50,0.00,,,0.00,WUHU216DAVISVP2,2013-08-23 22:00:00,
2013-08-23 18:01:00,81.9,61.0,29.28,NE,43,8.0,11.0,49,0.00,,,0.00,WUHU216DAVISVP2,2013-08-23 22:01:00,
2013-08-23 18:02:00,81.9,61.0,29.28,NE,39,6.0,11.0,49,0.00,,,0.00,WUHU216DAVISVP2,2013-08-23 22:02:00,
2013-08-23 18:03:00,82.0,61.1,29.28,ENE,62,8.0,11.0,49,0.00,,,0.00,WUHU216DAVISVP2,2013-08-23 22:03:00,
2013-08-23 18:04:00,82.0,61.1,29.28,ENE,58,6.0,11.0,49,0.00,,,0.00,WUHU216DAVISVP2,2013-08-23 22:04:00,
2013-08-23 18:05:00,82.0,61.1,29.28,East,100,6.0,11.0,49,0.00,,,0.00,WUHU216DAVISVP2,2013-08-23 22:05:00,
2013-08-23 18:06:00,81.9,60.4,29.28,East,88,5.0,11.0,48,0.00,,,0.00,WUHU216DAVISVP2,2013-08-23 22:06:00,
2013-08-23 18:07:00,81.8,60.3,29.28,ENE,66,3.0,11.0,48,0.00,,,0.00,WUHU216DAVISVP2,2013-08-23 22:07:00,
2013-08-23 18:09:00,81.7,60.2,29.29,ENE,61,4.0,9.0,48,0.00,,,0.00,WUHU216DAVISVP2,2013-08-23 22:09:00,
2013-08-23 18:10:00,81.8,60.2,29.28,ENE,61,4.0,9.0,48,0.00,,,0.00,WUHU216DAVISVP2,2013-08-23 22:10:00,
2013-08-23 18:11:00,81.8,60.2,29.28,ENE,61,2.0,9.0,48,0.00,,,0.00,WUHU216DAVISVP2,2013-08-23 22:11:00,
2013-08-23 18:12:00,81.8,60.2,29.29,East,93,6.0,9.0,48,0.00,,,0.00,WUHU216DAVISVP2,2013-08-23 22:12:00,
2013-08-23 18:14:00,81.7,60.2,29.29,ENE,67,5.0,9.0,48,0.00,,,0.00,WUHU216DAVISVP2,2013-08-23 22:14:00,
2013-08-23 18:15:00,81.7,60.8,29.28,ENE,67,1.0,9.0,49,0.00,,,0.00,WUHU216DAVISVP2,2013-08-23 22:15:00,
2013-08-23 18:16:00,81.7,60.8,29.29,ENE,69,6.0,9.0,49,0.00,,,0.00,WUHU216DAVISVP2,2013-08-23 22:16:00,
2013-08-23 18:18:00,81.6,60.1,29.29,ENE,68,6.0,9.0,48,0.00,,,0.00,WUHU216DAVISVP2,2013-08-23 22:18:00,
2013-08-23 18:19:00,81.6,60.1,29.29,ENE,70,8.0,9.0,48,0.00,,,0.00,WUHU216DAVISVP2,2013-08-23 22:19:00,
2013-08-23 18:20:00,81.6,60.1,29.29,ENE,66,4.0,9.0,48,0.00,,,0.00,WUHU216DAVISVP2,2013-08-23 22:20:00,
2013-08-23 18:21:00,81.6,59.4,29.29,ENE,66,4.0,9.0,47,0.00,,,0.00,WUHU216DAVISVP2,2013-08-23 22:21:00,
2013-08-23 18:23:00,81.8,60.2,29.29,ENE,66,4.0,9.0,48,0.00,,,0.00,WUHU216DAVISVP2,2013-08-23 22:23:00,
2013-08-23 18:24:00,81.9,60.4,29.28,ENE,66,5.0,9.0,48,0.00,,,0.00,WUHU216DAVISVP2,2013-08-23 22:24:00,
2013-08-23 18:25:00,82.0,60.5,29.28,ENE,77,2.0,9.0,48,0.00,,,0.00,WUHU216DAVISVP2,2013-08-23 22:25:00,
2013-08-23 18:26:00,82.0,60.5,29.28,ENE,68,4.0,9.0,48,0.00,,,0.00,WUHU216DAVISVP2,2013-08-23 22:26:00,
2013-08-23 18:28:00,82.2,60.6,29.28,ENE,69,4.0,8.0,48,0.00,,,0.00,WUHU216DAVISVP2,2013-08-23 22:28:00,
2013-08-23 18:29:00,82.1,59.9,29.28,ENE,69,5.0,8.0,47,0.00,,,0.00,WUHU216DAVISVP2,2013-08-23 22:29:00,
2013-08-23 18:30:00,82.1,59.9,29.28,ENE,69,6.0,8.0,47,0.00,,,0.00,WUHU216DAVISVP2,2013-08-23 22:30:00,
2013-08-23 18:31:00,82.1,59.9,29.28,ENE,63,5.0,8.0,47,0.00,,,0.00,WUHU216DAVISVP2,2013-08-23 22:31:00,
2013-08-23 18:33:00,82.3,60.7,29.28,ENE,70,5.0,8.0,48,0.00,,,0.00,WUHU216DAVISVP2,2013-08-23 22:33:00,
2013-08-23 18:35:00,82.3,59.5,29.28,NNE,29,5.0,8.0,46,0.00,,,0.00,WUHU216DAVISVP2,2013-08-23 22:35:00,
2013-08-23 18:36:00,82.2,59.4,29.28,NE,34,6.0,8.0,46,0.00,,,0.00,WUHU216DAVISVP2,2013-08-23 22:36:00,
2013-08-23 18:37:00,82.2,60.0,29.28,NE,42,4.0,8.0,47,0.00,,,0.00,WUHU216DAVISVP2,2013-08-23 22:37:00,
2013-08-23 18:38:00,82.0,59.8,29.28,ENE,76,7.0,8.0,47,0.00,,,0.00,WUHU216DAVISVP2,2013-08-23 22:38:00,
2013-08-23 18:40:00,81.8,59.7,29.28,ENE,68,7.0,9.0,47,0.00,,,0.00,WUHU216DAVISVP2,2013-08-23 22:40:00,
2013-08-23 18:41:00,81.7,59.6,29.29,ENE,60,5.0,9.0,47,0.00,,,0.00,WUHU216DAVISVP2,2013-08-23 22:41:00,
2013-08-23 18:42:00,81.7,59.6,29.29,ENE,60,7.0,9.0,47,0.00,,,0.00,WUHU216DAVISVP2,2013-08-23 22:42:00,
2013-08-23 18:43:00,81.7,59.6,29.29,ENE,57,6.0,9.0,47,0.00,,,0.00,WUHU216DAVISVP2,2013-08-23 22:43:00,
2013-08-23 18:45:00,81.7,59.6,29.29,ENE,67,8.0,9.0,47,0.00,,,0.00,WUHU216DAVISVP2,2013-08-23 22:45:00,
2013-08-23 18:46:00,81.6,59.5,29.28,East,98,6.0,9.0,47,0.00,,,0.00,WUHU216DAVISVP2,2013-08-23 22:46:00,
2013-08-23 18:47:00,81.6,59.5,29.28,East,85,4.0,9.0,47,0.00,,,0.00,WUHU216DAVISVP2,2013-08-23 22:47:00,
2013-08-23 18:49:00,81.4,59.9,29.28,ENE,68,5.0,9.0,48,0.00,,,0.00,WUHU216DAVISVP2,2013-08-23 22:49:00,
2013-08-23 18:50:00,81.4,60.5,29.28,ENE,69,5.0,9.0,49,0.00,,,0.00,WUHU216DAVISVP2,2013-08-23 22:50:00,
2013-08-23 18:51:00,81.4,60.5,29.28,ENE,70,5.0,9.0,49,0.00,,,0.00,WUHU216DAVISVP2,2013-08-23 22:51:00,
2013-08-23 18:52:00,81.4,60.5,29.28,ENE,70,4.0,9.0,49,0.00,,,0.00,WUHU216DAVISVP2,2013-08-23 22:52:00,
2013-08-23 18:54:00,81.4,60.5,29.28,ENE,76,5.0,9.0,49,0.00,,,0.00,WUHU216DAVISVP2,2013-08-23 22:54:00,
2013-08-23 18:55:00,81.3,60.4,29.28,ENE,72,5.0,9.0,49,0.00,,,0.00,WUHU216DAVISVP2,2013-08-23 22:55:00,
2013-08-23 18:56:00,81.2,60.9,29.28,ENE,67,6.0,9.0,50,0.00,,,0.00,WUHU216DAVISVP2,2013-08-23 22:56:00,
2013-08-23 18:57:00,81.2,60.9,29.28,ENE,70,4.0,9.0,50,0.00,,,0.00,WUHU216DAVISVP2,2013-08-23 22:57:00,
2013-08-23 18:59:00,81.1,60.8,29.28,ENE,59,5.0,8.0,50,0.00,,,0.00,WUHU216DAVISVP2,2013-08-23 22:59:00,
2013-08-23 19:01:00,81.1,60.8,29.28,ENE,60,4.0,8.0,50,0.00,,,0.00,WUHU216DAVISVP2,2013-08-23 23:01:00,
2013-08-23 19:02:00,81.2,60.9,29.28,ENE,62,7.0,8.0,50,0.00,,,0.00,WUHU216DAVISVP2,2013-08-23 23:02:00,
2013-08-23 19:03:00,81.2,60.9,29.28,ENE,64,5.0,8.0,50,0.00,,,0.00,WUHU216DAVISVP2,2013-08-23 23:03:00,
2013-08-23 19:04:00,81.2,60.9,29.28,ENE,65,2.0,8.0,50,0.00,,,0.00,WUHU216DAVISVP2,2013-08-23 23:04:00,
2013-08-23 19:06:00,81.2,61.5,29.28,ENE,65,2.0,8.0,51,0.00,,,0.00,WUHU216DAVISVP2,2013-08-23 23:06:00,
2013-08-23 19:07:00,81.3,61.6,29.28,ENE,65,2.0,8.0,51,0.00,,,0.00,WUHU216DAVISVP2,2013-08-23 23:07:00,
2013-08-23 19:08:00,81.3,61.6,29.28,ENE,65,2.0,8.0,51,0.00,,,0.00,WUHU216DAVISVP2,2013-08-23 23:08:00,
2013-08-23 19:09:00,81.3,61.0,29.28,ENE,65,4.0,8.0,50,0.00,,,0.00,WUHU216DAVISVP2,2013-08-23 23:09:00,
2013-08-23 19:11:00,81.3,61.0,29.28,ENE,70,5.0,8.0,50,0.00,,,0.00,WUHU216DAVISVP2,2013-08-23 23:11:00,
2013-08-23 19:12:00,81.3,61.0,29.28,NE,53,5.0,8.0,50,0.00,,,0.00,WUHU216DAVISVP2,2013-08-23 23:12:00,
2013-08-23 19:13:00,81.3,61.0,29.28,ENE,70,2.0,8.0,50,0.00,,,0.00,WUHU216DAVISVP2,2013-08-23 23:13:00,
2013-08-23 19:14:00,81.2,60.9,29.28,ENE,70,2.0,8.0,50,0.00,,,0.00,WUHU216DAVISVP2,2013-08-23 23:14:00,
2013-08-23 19:16:00,81.1,60.8,29.28,ENE,70,6.0,7.0,50,0.00,,,0.00,WUHU216DAVISVP2,2013-08-23 23:16:00,
2013-08-23 19:17:00,81.1,60.2,29.28,ENE,64,6.0,7.0,49,0.00,,,0.00,WUHU216DAVISVP2,2013-08-23 23:17:00,
2013-08-23 19:18:00,81.0,60.1,29.28,ENE,62,7.0,7.0,49,0.00,,,0.00,WUHU216DAVISVP2,2013-08-23 23:18:00,
2013-08-23 19:19:00,81.0,60.7,29.28,ENE,63,5.0,7.0,50,0.00,,,0.00,WUHU216DAVISVP2,2013-08-23 23:19:00,
2013-08-23 19:21:00,81.0,60.7,29.28,ENE,63,6.0,7.0,50,0.00,,,0.00,WUHU216DAVISVP2,2013-08-23 23:21:00,
2013-08-23 19:22:00,80.9,60.6,29.29,ENE,64,5.0,7.0,50,0.00,,,0.00,WUHU216DAVISVP2,2013-08-23 23:22:00,
2013-08-23 19:23:00,80.9,60.6,29.28,ENE,66,5.0,7.0,50,0.00,,,0.00,WUHU216DAVISVP2,2013-08-23 23:23:00,
2013-08-23 19:24:00,80.8,60.5,29.28,ENE,66,5.0,7.0,50,0.00,,,0.00,WUHU216DAVISVP2,2013-08-23 23:24:00,
2013-08-23 19:26:00,80.8,60.5,29.28,ENE,64,1.0,7.0,50,0.00,,,0.00,WUHU216DAVISVP2,2013-08-23 23:26:00,
2013-08-23 19:27:00,80.7,60.5,29.28,ENE,64,4.0,7.0,50,0.00,,,0.00,WUHU216DAVISVP2,2013-08-23 23:27:00,
2013-08-23 19:28:00,80.7,60.5,29.28,ENE,64,4.0,7.0,50,0.00,,,0.00,WUHU216DAVISVP2,2013-08-23 23:28:00,
2013-08-23 19:29:00,80.6,60.9,29.28,ENE,65,5.0,7.0,51,0.00,,,0.00,WUHU216DAVISVP2,2013-08-23 23:29:00,
2013-08-23 19:31:00,80.6,60.9,29.28,ENE,65,5.0,7.0,51,0.00,,,0.00,WUHU216DAVISVP2,2013-08-23 23:31:00,
2013-08-23 19:32:00,80.5,60.8,29.28,ENE,65,4.0,7.0,51,0.00,,,0.00,WUHU216DAVISVP2,2013-08-23 23:32:00,
2013-08-23 19:33:00,80.5,60.8,29.28,ENE,65,4.0,7.0,51,0.00,,,0.00,WUHU216DAVISVP2,2013-08-23 23:33:00,
2013-08-23 19:34:00,80.5,60.8,29.28,ENE,65,4.0,7.0,51,0.00,,,0.00,WUHU216DAVISVP2,2013-08-23 23:34:00,
2013-08-23 19:37:00,80.4,60.7,29.28,ENE,65,4.0,7.0,51,0.00,,,0.00,WUHU216DAVISVP2,2013-08-23 23:37:00,
2013-08-23 19:39:00,80.4,61.3,29.28,ENE,65,4.0,7.0,52,0.00,,,0.00,WUHU216DAVISVP2,2013-08-23 23:39:00,
2013-08-23 19:40:00,80.3,61.2,29.29,ENE,65,5.0,7.0,52,0.00,,,0.00,WUHU216DAVISVP2,2013-08-23 23:40:00,
2013-08-23 19:42:00,80.2,61.1,29.29,ENE,65,1.0,7.0,52,0.00,,,0.00,WUHU216DAVISVP2,2013-08-23 23:42:00,
2013-08-23 19:43:00,80.2,61.1,29.29,ENE,65,2.0,7.0,52,0.00,,,0.00,WUHU216DAVISVP2,2013-08-23 23:43:00,
2013-08-23 19:44:00,80.2,61.1,29.29,ENE,65,2.0,7.0,52,0.00,,,0.00,WUHU216DAVISVP2,2013-08-23 23:44:00,
2013-08-23 19:45:00,80.1,61.0,29.29,ENE,65,3.0,7.0,52,0.00,,,0.00,WUHU216DAVISVP2,2013-08-23 23:45:00,
2013-08-23 19:47:00,80.0,61.5,29.29,ENE,65,3.0,7.0,53,0.00,,,0.00,WUHU216DAVISVP2,2013-08-23 23:47:00,
2013-08-23 19:48:00,80.0,61.5,29.29,ENE,65,3.0,7.0,53,0.00,,,0.00,WUHU216DAVISVP2,2013-08-23 23:48:00,
2013-08-23 19:49:00,80.0,61.5,29.29,ENE,65,1.0,7.0,53,0.00,,,0.00,WUHU216DAVISVP2,2013-08-23 23:49:00,
2013-08-23 19:50:00,79.8,61.3,29.29,ENE,65,1.0,7.0,53,0.00,,,0.00,WUHU216DAVISVP2,2013-08-23 23:50:00,
2013-08-23 19:53:00,79.6,61.7,29.29,ENE,65,4.0,6.0,54,0.00,,,0.00,WUHU216DAVISVP2,2013-08-23 23:53:00,
2013-08-23 19:54:00,79.6,61.7,29.29,ENE,65,5.0,6.0,54,0.00,,,0.00,WUHU216DAVISVP2,2013-08-23 23:54:00,
2013-08-23 19:55:00,79.4,61.5,29.29,ENE,65,6.0,6.0,54,0.00,,,0.00,WUHU216DAVISVP2,2013-08-23 23:55:00,
2013-08-23 19:58:00,79.3,61.4,29.29,ENE,69,2.0,8.0,54,0.00,,,0.00,WUHU216DAVISVP2,2013-08-23 23:58:00,
2013-08-23 19:59:00,79.2,61.8,29.30,ENE,69,5.0,8.0,55,0.00,,,0.00,WUHU216DAVISVP2,2013-08-23 23:59:00,
2013-08-23 20:01:00,79.1,61.7,29.30,ENE,67,4.0,8.0,55,0.00,,,0.00,WUHU216DAVISVP2,2013-08-24 00:01:00,
2013-08-23 20:03:00,78.9,62.1,29.30,ENE,67,1.0,8.0,56,0.00,,,0.00,WUHU216DAVISVP2,2013-08-24 00:03:00,
2013-08-23 20:04:00,78.8,62.0,29.30,ENE,67,2.0,8.0,56,0.00,,,0.00,WUHU216DAVISVP2,2013-08-24 00:04:00,
2013-08-23 20:06:00,78.7,61.9,29.29,ENE,67,4.0,8.0,56,0.00,,,0.00,WUHU216DAVISVP2,2013-08-24 00:06:00,
2013-08-23 20:08:00,78.6,62.3,29.29,ENE,67,2.0,8.0,57,0.00,,,0.00,WUHU216DAVISVP2,2013-08-24 00:08:00,
2013-08-23 20:09:00,78.4,62.1,29.29,ENE,67,1.0,8.0,57,0.00,,,0.00,WUHU216DAVISVP2,2013-08-24 00:09:00,
2013-08-23 20:11:00,78.3,62.0,29.29,ENE,67,2.0,8.0,57,0.00,,,0.00,WUHU216DAVISVP2,2013-08-24 00:11:00,
2013-08-23 20:13:00,78.2,62.4,29.29,ENE,67,1.0,8.0,58,0.00,,,0.00,WUHU216DAVISVP2,2013-08-24 00:13:00,
2013-08-23 20:14:00,78.1,62.3,29.29,ENE,67,0.0,8.0,58,0.00,,,0.00,WUHU216DAVISVP2,2013-08-24 00:14:00,
2013-08-23 20:15:00,78.0,62.2,29.29,ENE,67,2.0,8.0,58,0.00,,,0.00,WUHU216DAVISVP2,2013-08-24 00:15:00,
2013-08-23 20:16:00,77.9,62.6,29.29,ENE,67,0.0,7.0,59,0.00,,,0.00,WUHU216DAVISVP2,2013-08-24 00:16:00,
2013-08-23 20:18:00,77.6,61.9,29.29,ENE,68,5.0,7.0,58,0.00,,,0.00,WUHU216DAVISVP2,2013-08-24 00:18:00,
2013-08-23 20:19:00,77.6,61.9,29.29,ENE,68,4.0,7.0,58,0.00,,,0.00,WUHU216DAVISVP2,2013-08-24 00:19:00,
2013-08-23 20:20:00,77.4,61.7,29.30,ENE,67,9.0,9.0,58,0.00,,,0.00,WUHU216DAVISVP2,2013-08-24 00:20:00,
2013-08-23 20:21:00,77.2,61.5,29.30,ENE,61,5.0,9.0,58,0.00,,,0.00,WUHU216DAVISVP2,2013-08-24 00:21:00,
2013-08-23 20:23:00,77.0,61.8,29.30,ENE,62,3.0,9.0,59,0.00,,,0.00,WUHU216DAVISVP2,2013-08-24 00:23:00,
2013-08-23 20:24:00,76.9,61.7,29.30,ENE,62,4.0,9.0,59,0.00,,,0.00,WUHU216DAVISVP2,2013-08-24 00:24:00,
2013-08-23 20:25:00,76.7,61.5,29.30,ENE,62,2.0,9.0,59,0.00,,,0.00,WUHU216DAVISVP2,2013-08-24 00:25:00,
2013-08-23 20:26:00,76.6,61.9,29.30,ENE,62,6.0,9.0,60,0.00,,,0.00,WUHU216DAVISVP2,2013-08-24 00:26:00,
2013-08-23 20:28:00,76.4,61.7,29.30,ENE,68,5.0,9.0,60,0.00,,,0.00,WUHU216DAVISVP2,2013-08-24 00:28:00,
2013-08-23 20:29:00,76.3,61.6,29.30,ENE,68,5.0,9.0,60,0.00,,,0.00,WUHU216DAVISVP2,2013-08-24 00:29:00,
2013-08-23 20:30:00,76.1,61.4,29.30,ENE,68,4.0,9.0,60,0.00,,,0.00,WUHU216DAVISVP2,2013-08-24 00:30:00,
2013-08-23 20:31:00,76.0,61.8,29.30,ENE,68,2.0,9.0,61,0.00,,,0.00,WUHU216DAVISVP2,2013-08-24 00:31:00,
2013-08-23 20:33:00,75.9,61.7,29.30,ENE,68,4.0,9.0,61,0.00,,,0.00,WUHU216DAVISVP2,2013-08-24 00:33:00,
2013-08-23 20:34:00,75.8,61.6,29.30,ENE,68,2.0,9.0,61,0.00,,,0.00,WUHU216DAVISVP2,2013-08-24 00:34:00,
2013-08-23 20:35:00,75.8,61.6,29.30,ENE,68,0.0,9.0,61,0.00,,,0.00,WUHU216DAVISVP2,2013-08-24 00:35:00,
2013-08-23 20:36:00,75.7,61.5,29.30,ENE,68,1.0,9.0,61,0.00,,,0.00,WUHU216DAVISVP2,2013-08-24 00:36:00,
2013-08-23 20:39:00,75.5,61.8,29.30,ENE,68,4.0,8.0,62,0.00,,,0.00,WUHU216DAVISVP2,2013-08-24 00:39:00,
2013-08-23 20:40:00,75.3,61.6,29.30,ENE,68,4.0,8.0,62,0.00,,,0.00,WUHU216DAVISVP2,2013-08-24 00:40:00,
2013-08-23 20:41:00,75.3,62.1,29.30,ENE,68,1.0,8.0,63,0.00,,,0.00,WUHU216DAVISVP2,2013-08-24 00:41:00,
2013-08-23 20:44:00,74.9,62.1,29.30,ENE,68,0.0,8.0,64,0.00,,,0.00,WUHU216DAVISVP2,2013-08-24 00:44:00,
2013-08-23 20:45:00,74.8,62.0,29.30,ENE,68,0.0,8.0,64,0.00,,,0.00,WUHU216DAVISVP2,2013-08-24 00:45:00,
2013-08-23 20:46:00,74.7,61.9,29.30,ENE,68,0.0,7.0,64,0.00,,,0.00,WUHU216DAVISVP2,2013-08-24 00:46:00,
2013-08-23 20:49:00,74.4,62.1,29.31,ENE,68,1.0,6.0,65,0.00,,,0.00,WUHU216DAVISVP2,2013-08-24 00:49:00,
2013-08-23 20:50:00,74.4,62.1,29.31,ENE,68,2.0,6.0,65,0.00,,,0.00,WUHU216DAVISVP2,2013-08-24 00:50:00,
2013-08-23 20:51:00,74.2,61.9,29.30,ENE,68,2.0,6.0,65,0.00,,,0.00,WUHU216DAVISVP2,2013-08-24 00:51:00,
2013-08-23 20:52:00,74.2,61.9,29.31,ENE,68,0.0,6.0,65,0.00,,,0.00,WUHU216DAVISVP2,2013-08-24 00:52:00,
2013-08-23 20:54:00,73.9,62.0,29.31,ENE,68,2.0,6.0,66,0.00,,,0.00,WUHU216DAVISVP2,2013-08-24 00:54:00,
2013-08-23 20:55:00,73.9,62.0,29.31,ENE,68,1.0,6.0,66,0.00,,,0.00,WUHU216DAVISVP2,2013-08-24 00:55:00,
2013-08-23 20:57:00,73.7,61.8,29.31,ENE,68,1.0,6.0,66,0.00,,,0.00,WUHU216DAVISVP2,2013-08-24 00:57:00,
2013-08-23 21:00:00,73.4,62.0,29.31,ENE,68,2.0,6.0,67,0.00,,,0.00,WUHU216DAVISVP2,2013-08-24 01:00:00,
2013-08-23 21:02:00,73.2,61.8,29.31,ENE,68,2.0,5.0,67,0.00,,,0.00,WUHU216DAVISVP2,2013-08-24 01:02:00,
2013-08-23 21:05:00,73.0,62.0,29.32,ENE,68,1.0,5.0,68,0.00,,,0.00,WUHU216DAVISVP2,2013-08-24 01:05:00,
2013-08-23 21:06:00,72.9,61.9,29.32,ENE,68,1.0,4.0,68,0.00,,,0.00,WUHU216DAVISVP2,2013-08-24 01:06:00,
2013-08-23 21:07:00,72.8,61.8,29.32,ENE,68,2.0,4.0,68,0.00,,,0.00,WUHU216DAVISVP2,2013-08-24 01:07:00,
2013-08-23 21:10:00,72.6,62.0,29.32,ENE,68,1.0,4.0,69,0.00,,,0.00,WUHU216DAVISVP2,2013-08-24 01:10:00,
2013-08-23 21:11:00,72.5,61.7,29.33,ENE,68,2.0,4.0,69,0.00,,,0.00,WUHU216DAVISVP2,2013-08-24 01:11:00,
2013-08-23 21:12:00,72.4,61.7,29.33,ENE,68,2.0,4.0,69,0.00,,,0.00,WUHU216DAVISVP2,2013-08-24 01:12:00,
2013-08-23 21:13:00,72.4,61.7,29.33,ENE,68,2.0,4.0,69,0.00,,,0.00,WUHU216DAVISVP2,2013-08-24 01:13:00,
2013-08-23 21:15:00,72.2,61.9,29.33,ENE,68,1.0,4.0,70,0.00,,,0.00,WUHU216DAVISVP2,2013-08-24 01:15:00,
2013-08-23 21:16:00,72.2,61.9,29.33,ENE,68,0.0,4.0,70,0.00,,,0.00,WUHU216DAVISVP2,2013-08-24 01:16:00,
2013-08-23 21:17:00,72.1,61.8,29.32,ENE,68,0.0,4.0,70,0.00,,,0.00,WUHU216DAVISVP2,2013-08-24 01:17:00,
2013-08-23 21:18:00,72.1,61.8,29.32,ENE,68,0.0,4.0,70,0.00,,,0.00,WUHU216DAVISVP2,2013-08-24 01:18:00,
2013-08-23 21:20:00,71.9,61.8,29.32,ENE,68,0.0,4.0,70,0.00,,,0.00,WUHU216DAVISVP2,2013-08-24 01:20:00,
2013-08-23 21:21:00,71.9,61.8,29.32,ENE,68,0.0,4.0,70,0.00,,,0.00,WUHU216DAVISVP2,2013-08-24 01:21:00,
2013-08-23 21:22:00,71.8,61.7,29.32,ENE,68,2.0,4.0,70,0.00,,,0.00,WUHU216DAVISVP2,2013-08-24 01:22:00,
2013-08-23 21:23:00,71.8,61.7,29.32,ENE,68,2.0,4.0,70,0.00,,,0.00,WUHU216DAVISVP2,2013-08-24 01:23:00,
2013-08-23 21:25:00,71.6,61.7,29.33,ENE,68,0.0,4.0,71,0.00,,,0.00,WUHU216DAVISVP2,2013-08-24 01:25:00,
2013-08-23 21:26:00,71.6,61.7,29.33,ENE,68,0.0,4.0,71,0.00,,,0.00,WUHU216DAVISVP2,2013-08-24 01:26:00,
2013-08-23 21:27:00,71.5,61.2,29.33,ENE,68,1.0,4.0,70,0.00,,,0.00,WUHU216DAVISVP2,2013-08-24 01:27:00,
2013-08-23 21:28:00,71.5,61.2,29.33,ENE,68,0.0,4.0,70,0.00,,,0.00,WUHU216DAVISVP2,2013-08-24 01:28:00,
2013-08-23 21:30:00,71.3,61.0,29.33,ENE,68,1.0,4.0,70,0.00,,,0.00,WUHU216DAVISVP2,2013-08-24 01:30:00,
2013-08-23 21:31:00,71.3,61.0,29.33,ENE,68,1.0,4.0,70,0.00,,,0.00,WUHU216DAVISVP2,2013-08-24 01:31:00,
2013-08-23 21:32:00,71.3,61.0,29.33,ENE,68,0.0,4.0,70,0.00,,,0.00,WUHU216DAVISVP2,2013-08-24 01:32:00,
2013-08-23 21:33:00,71.2,60.9,29.33,ENE,68,1.0,4.0,70,0.00,,,0.00,WUHU216DAVISVP2,2013-08-24 01:33:00,
2013-08-23 21:36:00,71.2,60.7,29.33,ENE,68,4.0,6.0,69,0.00,,,0.00,WUHU216DAVISVP2,2013-08-24 01:36:00,
2013-08-23 21:37:00,71.2,60.7,29.33,ENE,68,0.0,6.0,69,0.00,,,0.00,WUHU216DAVISVP2,2013-08-24 01:37:00,
2013-08-23 21:38:00,71.2,60.7,29.33,ENE,68,1.0,6.0,69,0.00,,,0.00,WUHU216DAVISVP2,2013-08-24 01:38:00,
2013-08-23 21:39:00,71.2,60.7,29.33,ENE,68,0.0,6.0,69,0.00,,,0.00,WUHU216DAVISVP2,2013-08-24 01:39:00,
2013-08-23 21:41:00,71.2,60.7,29.33,ENE,68,2.0,6.0,69,0.00,,,0.00,WUHU216DAVISVP2,2013-08-24 01:41:00,
2013-08-23 21:43:00,71.2,60.7,29.33,ENE,68,2.0,6.0,69,0.00,,,0.00,WUHU216DAVISVP2,2013-08-24 01:43:00,
2013-08-23 21:44:00,71.1,60.6,29.33,ENE,68,1.0,6.0,69,0.00,,,0.00,WUHU216DAVISVP2,2013-08-24 01:44:00,
2013-08-23 21:46:00,71.1,60.6,29.33,ENE,68,0.0,6.0,69,0.00,,,0.00,WUHU216DAVISVP2,2013-08-24 01:46:00,
2013-08-23 21:48:00,71.1,60.6,29.33,ENE,68,2.0,6.0,69,0.00,,,0.00,WUHU216DAVISVP2,2013-08-24 01:48:00,
2013-08-23 21:50:00,71.0,60.5,29.33,ENE,68,0.0,6.0,69,0.00,,,0.00,WUHU216DAVISVP2,2013-08-24 01:50:00,
2013-08-23 21:51:00,71.0,60.5,29.33,ENE,68,0.0,6.0,69,0.00,,,0.00,WUHU216DAVISVP2,2013-08-24 01:51:00,
2013-08-23 21:53:00,70.9,60.4,29.33,ENE,68,2.0,5.0,69,0.00,,,0.00,WUHU216DAVISVP2,2013-08-24 01:53:00,
2013-08-23 21:54:00,70.8,59.9,29.33,ENE,68,0.0,5.0,68,0.00,,,0.00,WUHU216DAVISVP2,2013-08-24 01:54:00,
2013-08-23 21:55:00,70.8,59.9,29.33,ENE,68,0.0,4.0,68,0.00,,,0.00,WUHU216DAVISVP2,2013-08-24 01:55:00,
2013-08-23 21:56:00,70.8,59.9,29.33,ENE,68,0.0,4.0,68,0.00,,,0.00,WUHU216DAVISVP2,2013-08-24 01:56:00,
2013-08-23 21:58:00,70.7,59.8,29.33,ENE,68,1.0,4.0,68,0.00,,,0.00,WUHU216DAVISVP2,2013-08-24 01:58:00,
2013-08-23 22:00:00,70.7,59.8,29.33,ENE,68,0.0,4.0,68,0.00,,,0.00,WUHU216DAVISVP2,2013-08-24 02:00:00,
2013-08-23 22:01:00,70.7,61.0,29.33,ENE,68,0.0,4.0,71,0.00,,,0.00,WUHU216DAVISVP2,2013-08-24 02:01:00,
2013-08-23 22:02:00,70.7,61.0,29.33,ENE,68,0.0,4.0,71,0.00,,,0.00,WUHU216DAVISVP2,2013-08-24 02:02:00,
2013-08-23 22:03:00,70.6,62.1,29.33,ENE,68,0.0,4.0,74,0.00,,,0.00,WUHU216DAVISVP2,2013-08-24 02:03:00,
2013-08-23 22:05:00,70.5,62.0,29.33,ENE,68,0.0,4.0,74,0.00,,,0.00,WUHU216DAVISVP2,2013-08-24 02:05:00,
2013-08-23 22:07:00,70.3,61.8,29.34,ENE,68,0.0,4.0,74,0.00,,,0.00,WUHU216DAVISVP2,2013-08-24 02:07:00,
2013-08-23 22:08:00,70.2,61.3,29.34,ENE,68,0.0,2.0,73,0.00,,,0.00,WUHU216DAVISVP2,2013-08-24 02:08:00,
2013-08-23 22:10:00,69.9,61.0,29.34,ENE,68,1.0,2.0,73,0.00,,,0.00,WUHU216DAVISVP2,2013-08-24 02:10:00,
2013-08-23 22:12:00,69.8,60.5,29.33,ENE,68,0.0,2.0,72,0.00,,,0.00,WUHU216DAVISVP2,2013-08-24 02:12:00,
2013-08-23 22:14:00,69.6,60.3,29.33,ENE,68,0.0,2.0,72,0.00,,,0.00,WUHU216DAVISVP2,2013-08-24 02:14:00,
2013-08-23 22:16:00,69.5,59.9,29.33,ENE,68,0.0,2.0,71,0.00,,,0.00,WUHU216DAVISVP2,2013-08-24 02:16:00,
2013-08-23 22:17:00,69.5,59.9,29.33,ENE,68,0.0,2.0,71,0.00,,,0.00,WUHU216DAVISVP2,2013-08-24 02:17:00,
2013-08-23 22:19:00,69.4,59.8,29.34,ENE,68,1.0,2.0,71,0.00,,,0.00,WUHU216DAVISVP2,2013-08-24 02:19:00,
2013-08-23 22:21:00,69.4,59.8,29.34,ENE,68,2.0,2.0,71,0.00,,,0.00,WUHU216DAVISVP2,2013-08-24 02:21:00,
2013-08-23 22:22:00,69.4,59.8,29.34,ENE,68,0.0,2.0,71,0.00,,,0.00,WUHU216DAVISVP2,2013-08-24 02:22:00,
2013-08-23 22:24:00,69.3,59.7,29.34,ENE,68,2.0,5.0,71,0.00,,,0.00,WUHU216DAVISVP2,2013-08-24 02:24:00,
2013-08-23 22:26:00,69.2,59.6,29.34,ENE,68,0.0,5.0,71,0.00,,,0.00,WUHU216DAVISVP2,2013-08-24 02:26:00,
2013-08-23 22:27:00,69.2,59.6,29.34,ENE,68,2.0,5.0,71,0.00,,,0.00,WUHU216DAVISVP2,2013-08-24 02:27:00,
2013-08-23 22:28:00,69.1,59.1,29.34,ENE,68,1.0,5.0,70,0.00,,,0.00,WUHU216DAVISVP2,2013-08-24 02:28:00,
2013-08-23 22:29:00,69.1,59.1,29.34,ENE,68,3.0,5.0,70,0.00,,,0.00,WUHU216DAVISVP2,2013-08-24 02:29:00,
2013-08-23 22:31:00,69.1,59.1,29.34,ENE,68,0.0,5.0,70,0.00,,,0.00,WUHU216DAVISVP2,2013-08-24 02:31:00,
2013-08-23 22:32:00,69.1,59.1,29.34,ENE,68,0.0,5.0,70,0.00,,,0.00,WUHU216DAVISVP2,2013-08-24 02:32:00,
2013-08-23 22:33:00,69.1,59.1,29.34,ENE,68,0.0,5.0,70,0.00,,,0.00,WUHU216DAVISVP2,2013-08-24 02:33:00,
2013-08-23 22:34:00,69.0,59.0,29.34,ENE,68,0.0,5.0,70,0.00,,,0.00,WUHU216DAVISVP2,2013-08-24 02:34:00,
2013-08-23 22:37:00,69.0,59.0,29.34,ENE,68,0.0,5.0,70,0.00,,,0.00,WUHU216DAVISVP2,2013-08-24 02:37:00,
2013-08-23 22:38:00,68.9,58.9,29.34,ENE,68,0.0,5.0,70,0.00,,,0.00,WUHU216DAVISVP2,2013-08-24 02:38:00,
2013-08-23 22:40:00,68.9,58.9,29.34,ENE,68,1.0,5.0,70,0.00,,,0.00,WUHU216DAVISVP2,2013-08-24 02:40:00,
2013-08-23 22:42:00,68.9,58.5,29.34,ENE,69,1.0,5.0,69,0.00,,,0.00,WUHU216DAVISVP2,2013-08-24 02:42:00,
2013-08-23 22:43:00,68.9,58.5,29.34,ENE,71,3.0,5.0,69,0.00,,,0.00,WUHU216DAVISVP2,2013-08-24 02:43:00,
2013-08-23 22:45:00,68.9,58.1,29.34,ENE,71,1.0,5.0,68,0.00,,,0.00,WUHU216DAVISVP2,2013-08-24 02:45:00,
2013-08-23 22:47:00,68.9,58.1,29.34,ENE,71,1.0,5.0,68,0.00,,,0.00,WUHU216DAVISVP2,2013-08-24 02:47:00,
2013-08-23 22:48:00,68.9,58.1,29.34,ENE,71,4.0,5.0,68,0.00,,,0.00,WUHU216DAVISVP2,2013-08-24 02:48:00,
2013-08-23 22:50:00,68.9,58.1,29.34,ENE,71,2.0,5.0,68,0.00,,,0.00,WUHU216DAVISVP2,2013-08-24 02:50:00,
2013-08-23 22:52:00,68.9,58.1,29.34,ENE,71,2.0,5.0,68,0.00,,,0.00,WUHU216DAVISVP2,2013-08-24 02:52:00,
2013-08-23 22:53:00,68.9,58.1,29.34,ENE,71,3.0,5.0,68,0.00,,,0.00,WUHU216DAVISVP2,2013-08-24 02:53:00,
2013-08-23 22:54:00,68.9,58.1,29.34,ENE,71,5.0,5.0,68,0.00,,,0.00,WUHU216DAVISVP2,2013-08-24 02:54:00,
2013-08-23 22:55:00,68.9,58.1,29.34,East,97,4.0,6.0,68,0.00,,,0.00,WUHU216DAVISVP2,2013-08-24 02:55:00,
2013-08-23 22:57:00,68.8,58.0,29.34,East,92,5.0,6.0,68,0.00,,,0.00,WUHU216DAVISVP2,2013-08-24 02:57:00,
2013-08-23 22:58:00,68.8,58.0,29.34,East,81,3.0,6.0,68,0.00,,,0.00,WUHU216DAVISVP2,2013-08-24 02:58:00,
2013-08-23 22:59:00,68.8,57.6,29.34,East,82,2.0,6.0,67,0.00,,,0.00,WUHU216DAVISVP2,2013-08-24 02:59:00,
2013-08-23 23:00:00,68.9,57.7,29.34,East,82,4.0,6.0,67,0.00,,,0.00,WUHU216DAVISVP2,2013-08-24 03:00:00,
2013-08-23 23:02:00,68.9,57.7,29.34,East,82,1.0,6.0,67,0.00,,,0.00,WUHU216DAVISVP2,2013-08-24 03:02:00,
2013-08-23 23:04:00,68.9,57.7,29.34,East,81,2.0,6.0,67,0.00,,,0.00,WUHU216DAVISVP2,2013-08-24 03:04:00,
2013-08-23 23:05:00,68.9,57.7,29.34,East,83,4.0,6.0,67,0.00,,,0.00,WUHU216DAVISVP2,2013-08-24 03:05:00,
2013-08-23 23:07:00,68.9,57.7,29.34,East,83,2.0,6.0,67,0.00,,,0.00,WUHU216DAVISVP2,2013-08-24 03:07:00,
2013-08-23 23:09:00,69.0,57.8,29.34,East,91,2.0,6.0,67,0.00,,,0.00,WUHU216DAVISVP2,2013-08-24 03:09:00,
2013-08-23 23:10:00,69.0,57.8,29.34,East,91,0.0,6.0,67,0.00,,,0.00,WUHU216DAVISVP2,2013-08-24 03:10:00,
2013-08-23 23:12:00,68.9,57.7,29.34,East,91,1.0,6.0,67,0.00,,,0.00,WUHU216DAVISVP2,2013-08-24 03:12:00,
2013-08-23 23:14:00,68.9,58.1,29.34,East,91,0.0,5.0,68,0.00,,,0.00,WUHU216DAVISVP2,2013-08-24 03:14:00,
2013-08-23 23:15:00,68.8,58.0,29.34,East,91,0.0,5.0,68,0.00,,,0.00,WUHU216DAVISVP2,2013-08-24 03:15:00,
2013-08-23 23:16:00,68.8,58.0,29.34,East,92,0.0,5.0,68,0.00,,,0.00,WUHU216DAVISVP2,2013-08-24 03:16:00,
2013-08-23 23:18:00,68.6,57.8,29.34,ESE,104,0.0,5.0,68,0.00,,,0.00,WUHU216DAVISVP2,2013-08-24 03:18:00,
2013-08-23 23:19:00,68.5,58.1,29.35,ESE,105,1.0,5.0,69,0.00,,,0.00,WUHU216DAVISVP2,2013-08-24 03:19:00,
2013-08-23 23:20:00,68.5,58.1,29.35,ESE,105,0.0,5.0,69,0.00,,,0.00,WUHU216DAVISVP2,2013-08-24 03:20:00,
2013-08-23 23:21:00,68.5,58.1,29.35,ESE,104,0.0,5.0,69,0.00,,,0.00,WUHU216DAVISVP2,2013-08-24 03:21:00,
2013-08-23 23:23:00,68.3,58.3,29.34,ESE,105,0.0,5.0,70,0.00,,,0.00,WUHU216DAVISVP2,2013-08-24 03:23:00,
2013-08-23 23:24:00,68.2,58.2,29.34,ESE,105,2.0,5.0,70,0.00,,,0.00,WUHU216DAVISVP2,2013-08-24 03:24:00,
2013-08-23 23:25:00,68.1,57.7,29.34,ESE,105,2.0,5.0,69,0.00,,,0.00,WUHU216DAVISVP2,2013-08-24 03:25:00,
2013-08-23 23:26:00,68.1,57.7,29.34,ESE,105,1.0,5.0,69,0.00,,,0.00,WUHU216DAVISVP2,2013-08-24 03:26:00,
2013-08-23 23:28:00,67.9,57.9,29.34,ESE,105,1.0,5.0,70,0.00,,,0.00,WUHU216DAVISVP2,2013-08-24 03:28:00,
2013-08-23 23:29:00,67.9,57.9,29.34,ESE,105,0.0,5.0,70,0.00,,,0.00,WUHU216DAVISVP2,2013-08-24 03:29:00,
2013-08-23 23:30:00,67.8,57.8,29.34,ESE,105,2.0,5.0,70,0.00,,,0.00,WUHU216DAVISVP2,2013-08-24 03:30:00,
2013-08-23 23:31:00,67.8,57.8,29.34,ESE,110,2.0,5.0,70,0.00,,,0.00,WUHU216DAVISVP2,2013-08-24 03:31:00,
2013-08-23 23:33:00,67.7,57.7,29.34,ESE,109,4.0,5.0,70,0.00,,,0.00,WUHU216DAVISVP2,2013-08-24 03:33:00,
2013-08-23 23:34:00,67.7,57.7,29.34,ESE,109,1.0,5.0,70,0.00,,,0.00,WUHU216DAVISVP2,2013-08-24 03:34:00,
2013-08-23 23:35:00,67.7,57.7,29.34,ESE,109,1.0,5.0,70,0.00,,,0.00,WUHU216DAVISVP2,2013-08-24 03:35:00,
2013-08-23 23:36:00,67.7,57.7,29.34,ESE,118,4.0,5.0,70,0.00,,,0.00,WUHU216DAVISVP2,2013-08-24 03:36:00,
2013-08-23 23:37:00,67.6,57.6,29.34,ESE,118,3.0,5.0,70,0.00,,,0.00,WUHU216DAVISVP2,2013-08-24 03:37:00,
2013-08-23 23:38:00,67.6,57.6,29.34,ESE,118,4.0,5.0,70,0.00,,,0.00,WUHU216DAVISVP2,2013-08-24 03:38:00,
2013-08-23 23:40:00,67.7,58.1,29.34,ESE,112,4.0,6.0,71,0.00,,,0.00,WUHU216DAVISVP2,2013-08-24 03:40:00,
2013-08-23 23:41:00,67.6,58.0,29.34,ESE,112,0.0,6.0,71,0.00,,,0.00,WUHU216DAVISVP2,2013-08-24 03:41:00,
2013-08-23 23:42:00,67.6,58.0,29.34,ESE,112,1.0,6.0,71,0.00,,,0.00,WUHU216DAVISVP2,2013-08-24 03:42:00,
2013-08-23 23:43:00,67.5,57.9,29.34,ESE,116,4.0,6.0,71,0.00,,,0.00,WUHU216DAVISVP2,2013-08-24 03:43:00,
2013-08-23 23:45:00,67.4,57.8,29.34,ESE,116,0.0,6.0,71,0.00,,,0.00,WUHU216DAVISVP2,2013-08-24 03:45:00,
2013-08-23 23:46:00,67.3,57.7,29.34,ESE,102,1.0,6.0,71,0.00,,,0.00,WUHU216DAVISVP2,2013-08-24 03:46:00,
2013-08-23 23:47:00,67.3,57.7,29.34,ESE,102,1.0,6.0,71,0.00,,,0.00,WUHU216DAVISVP2,2013-08-24 03:47:00,
2013-08-23 23:48:00,67.2,57.6,29.34,ESE,115,5.0,6.0,71,0.00,,,0.00,WUHU216DAVISVP2,2013-08-24 03:48:00,
2013-08-23 23:50:00,67.1,57.5,29.34,ESE,112,2.0,6.0,71,0.00,,,0.00,WUHU216DAVISVP2,2013-08-24 03:50:00,
2013-08-23 23:52:00,67.0,57.8,29.34,ESE,114,2.0,6.0,72,0.00,,,0.00,WUHU216DAVISVP2,2013-08-24 03:52:00,
2013-08-23 23:53:00,67.0,57.8,29.34,ESE,114,2.0,6.0,72,0.00,,,0.00,WUHU216DAVISVP2,2013-08-24 03:53:00,
2013-08-23 23:55:00,66.8,58.0,29.35,ESE,114,0.0,6.0,73,0.00,,,0.00,WUHU216DAVISVP2,2013-08-24 03:55:00,
2013-08-23 23:56:00,66.8,58.0,29.35,ESE,114,1.0,6.0,73,0.00,,,0.00,WUHU216DAVISVP2,2013-08-24 03:56:00,
2013-08-23 23:57:00,66.7,57.9,29.35,ESE,114,1.0,6.0,73,0.00,,,0.00,WUHU216DAVISVP2,2013-08-24 03:57:00,
2013-08-23 23:58:00,66.6,57.8,29.35,ESE,112,4.0,6.0,73,0.00,,,0.00,WUHU216DAVISVP2,2013-08-24 03:58:00,